Time,TemperatureF,DewpointF,PressureIn,WindDirection,WindDirectionDegrees,WindSpeedMPH,WindSpeedGustMPH,Humidity,HourlyPrecipIn,Conditions,Clouds,dailyrainin,SoftwareType,DateUTC
2013-08-13 00:01:00,73.7,73.1,29.93,WNW,287,0.0,0.0,98,0.08,,,0.92,Wunderground v.1.15,2013-08-13 04:01:00,
2013-08-13 00:07:00,73.7,73.1,29.92,WNW,287,0.0,0.0,98,0.15,,,0.00,Wunderground v.1.15,2013-08-13 04:07:00,
2013-08-13 00:08:00,73.7,73.1,29.92,WNW,287,0.0,0.0,98,0.13,,,0.00,Wunderground v.1.15,2013-08-13 04:08:00,
2013-08-13 00:10:00,73.7,73.1,29.92,WNW,287,0.0,0.0,98,0.12,,,0.01,Wunderground v.1.15,2013-08-13 04:10:00,
2013-08-13 00:13:00,73.7,73.1,29.92,WNW,287,0.0,0.0,98,0.12,,,0.01,Wunderground v.1.15,2013-08-13 04:13:00,
2013-08-13 00:14:00,73.7,73.1,29.92,WNW,287,0.0,0.0,98,0.11,,,0.01,Wunderground v.1.15,2013-08-13 04:14:00,
2013-08-13 00:15:00,73.7,73.1,29.92,WNW,287,0.0,0.0,98,0.10,,,0.02,Wunderground v.1.15,2013-08-13 04:15:00,
2013-08-13 00:18:00,73.7,73.1,29.92,WNW,287,0.0,0.0,98,0.10,,,0.02,Wunderground v.1.15,2013-08-13 04:18:00,
2013-08-13 00:21:00,73.7,73.1,29.92,WNW,287,0.0,0.0,98,0.11,,,0.03,Wunderground v.1.15,2013-08-13 04:21:00,
2013-08-13 00:24:00,73.8,73.2,29.91,WNW,287,0.0,1.0,98,0.11,,,0.03,Wunderground v.1.15,2013-08-13 04:24:00,
2013-08-13 00:27:00,73.8,73.2,29.92,WNW,287,0.0,1.0,98,0.09,,,0.03,Wunderground v.1.15,2013-08-13 04:27:00,
2013-08-13 00:28:00,73.8,73.2,29.92,WNW,287,0.0,1.0,98,0.09,,,0.04,Wunderground v.1.15,2013-08-13 04:28:00,
2013-08-13 00:30:00,73.9,73.3,29.92,WNW,287,0.0,0.0,98,0.09,,,0.04,Wunderground v.1.15,2013-08-13 04:30:00,
2013-08-13 00:34:00,73.9,73.3,29.91,WNW,287,0.0,0.0,98,0.08,,,0.04,Wunderground v.1.15,2013-08-13 04:34:00,
2013-08-13 00:36:00,73.9,73.3,29.91,WNW,287,0.0,0.0,98,0.06,,,0.04,Wunderground v.1.15,2013-08-13 04:36:00,
2013-08-13 00:38:00,74.0,73.4,29.91,WNW,287,0.0,0.0,98,0.06,,,0.05,Wunderground v.1.15,2013-08-13 04:38:00,
2013-08-13 00:41:00,74.0,73.4,29.91,WNW,287,1.0,2.0,98,0.06,,,0.05,Wunderground v.1.15,2013-08-13 04:41:00,
2013-08-13 00:42:00,74.0,73.4,29.91,WNW,287,0.0,2.0,98,0.06,,,0.05,Wunderground v.1.15,2013-08-13 04:42:00,
2013-08-13 00:44:00,74.0,73.4,29.91,WNW,287,0.0,2.0,98,0.06,,,0.05,Wunderground v.1.15,2013-08-13 04:44:00,
2013-08-13 00:45:00,74.1,73.5,29.90,WNW,287,0.0,2.0,98,0.06,,,0.05,Wunderground v.1.15,2013-08-13 04:45:00,
2013-08-13 00:47:00,74.0,73.4,29.90,WNW,287,0.0,2.0,98,0.06,,,0.05,Wunderground v.1.15,2013-08-13 04:47:00,
2013-08-13 00:49:00,74.0,73.4,29.90,WNW,287,2.0,2.0,98,0.05,,,0.05,Wunderground v.1.15,2013-08-13 04:49:00,
2013-08-13 00:51:00,74.0,73.4,29.90,WNW,287,0.0,2.0,98,0.04,,,0.05,Wunderground v.1.15,2013-08-13 04:51:00,
2013-08-13 00:53:00,74.0,73.4,29.90,WNW,287,0.0,2.0,98,0.04,,,0.05,Wunderground v.1.15,2013-08-13 04:53:00,
2013-08-13 00:55:00,74.0,73.4,29.90,WNW,287,0.0,2.0,98,0.00,,,0.05,Wunderground v.1.15,2013-08-13 04:55:00,
2013-08-13 00:57:00,74.0,73.4,29.90,WNW,287,0.0,2.0,98,0.00,,,0.05,Wunderground v.1.15,2013-08-13 04:57:00,
2013-08-13 00:58:00,73.9,73.3,29.90,WNW,287,2.0,2.0,98,0.00,,,0.05,Wunderground v.1.15,2013-08-13 04:58:00,
2013-08-13 01:01:00,73.9,73.3,29.89,WNW,287,1.0,1.0,98,0.00,,,0.05,Wunderground v.1.15,2013-08-13 05:01:00,
2013-08-13 01:03:00,73.9,73.3,29.89,WNW,287,0.0,1.0,98,0.00,,,0.05,Wunderground v.1.15,2013-08-13 05:03:00,
2013-08-13 01:04:00,73.8,73.2,29.89,WNW,287,3.0,3.0,98,0.00,,,0.05,Wunderground v.1.15,2013-08-13 05:04:00,
2013-08-13 01:05:00,73.8,73.2,29.89,WNW,287,1.0,3.0,98,0.00,,,0.05,Wunderground v.1.15,2013-08-13 05:05:00,
2013-08-13 01:07:00,73.8,73.2,29.90,WNW,287,3.0,3.0,98,0.00,,,0.05,Wunderground v.1.15,2013-08-13 05:07:00,
2013-08-13 01:11:00,73.8,73.2,29.89,WNW,287,2.0,7.0,98,0.00,,,0.05,Wunderground v.1.15,2013-08-13 05:11:00,
2013-08-13 01:14:00,73.8,73.2,29.89,WNW,287,0.0,7.0,98,0.00,,,0.05,Wunderground v.1.15,2013-08-13 05:14:00,
2013-08-13 01:17:00,73.7,73.1,29.89,WNW,287,0.0,7.0,98,0.00,,,0.05,Wunderground v.1.15,2013-08-13 05:17:00,
2013-08-13 01:18:00,73.7,73.1,29.89,WNW,287,0.0,7.0,98,0.00,,,0.05,Wunderground v.1.15,2013-08-13 05:18:00,
2013-08-13 01:19:00,73.7,73.1,29.89,WNW,287,0.0,1.0,98,0.00,,,0.05,Wunderground v.1.15,2013-08-13 05:19:00,
2013-08-13 01:20:00,73.7,73.1,29.89,WNW,287,0.0,1.0,98,0.00,,,0.05,Wunderground v.1.15,2013-08-13 05:20:00,
2013-08-13 01:24:00,73.6,73.0,29.89,WNW,287,0.0,1.0,98,0.00,,,0.05,Wunderground v.1.15,2013-08-13 05:24:00,
2013-08-13 01:25:00,73.6,73.0,29.88,WNW,287,0.0,1.0,98,0.00,,,0.05,Wunderground v.1.15,2013-08-13 05:25:00,
2013-08-13 01:30:00,73.5,72.9,29.88,WNW,287,0.0,0.0,98,0.00,,,0.05,Wunderground v.1.15,2013-08-13 05:30:00,
2013-08-13 01:31:00,73.5,72.9,29.88,WNW,287,0.0,0.0,98,0.00,,,0.05,Wunderground v.1.15,2013-08-13 05:31:00,
2013-08-13 01:32:00,73.5,72.9,29.88,WNW,287,1.0,1.0,98,0.00,,,0.05,Wunderground v.1.15,2013-08-13 05:32:00,
2013-08-13 01:36:00,73.4,72.8,29.88,WNW,287,0.0,1.0,98,0.00,,,0.05,Wunderground v.1.15,2013-08-13 05:36:00,
2013-08-13 01:40:00,73.4,72.8,29.88,WNW,287,0.0,0.0,98,0.00,,,0.05,Wunderground v.1.15,2013-08-13 05:40:00,
2013-08-13 01:42:00,73.3,72.7,29.89,WNW,287,0.0,0.0,98,0.00,,,0.05,Wunderground v.1.15,2013-08-13 05:42:00,
2013-08-13 01:43:00,73.3,72.7,29.88,WNW,287,0.0,0.0,98,0.00,,,0.05,Wunderground v.1.15,2013-08-13 05:43:00,
2013-08-13 01:45:00,73.3,72.7,29.88,WNW,287,0.0,0.0,98,0.00,,,0.05,Wunderground v.1.15,2013-08-13 05:45:00,
2013-08-13 01:48:00,73.2,72.6,29.88,WNW,287,0.0,0.0,98,0.00,,,0.05,Wunderground v.1.15,2013-08-13 05:48:00,
2013-08-13 01:50:00,73.2,72.6,29.88,WNW,287,0.0,0.0,98,0.00,,,0.05,Wunderground v.1.15,2013-08-13 05:50:00,
2013-08-13 01:51:00,73.2,72.6,29.88,WNW,287,0.0,0.0,98,0.00,,,0.05,Wunderground v.1.15,2013-08-13 05:51:00,
2013-08-13 01:55:00,73.1,72.5,29.88,WNW,287,0.0,0.0,98,0.00,,,0.05,Wunderground v.1.15,2013-08-13 05:55:00,
2013-08-13 01:57:00,73.1,72.5,29.89,WNW,287,0.0,0.0,98,0.00,,,0.05,Wunderground v.1.15,2013-08-13 05:57:00,
2013-08-13 01:59:00,73.0,72.4,29.88,WNW,287,0.0,0.0,98,0.00,,,0.05,Wunderground v.1.15,2013-08-13 05:59:00,
2013-08-13 02:00:00,73.0,72.4,29.88,WNW,287,0.0,0.0,98,0.00,,,0.05,Wunderground v.1.15,2013-08-13 06:00:00,
2013-08-13 02:01:00,73.0,72.4,29.88,WNW,287,0.0,0.0,98,0.00,,,0.05,Wunderground v.1.15,2013-08-13 06:01:00,
2013-08-13 02:03:00,72.9,72.3,29.88,WNW,287,1.0,1.0,98,0.00,,,0.05,Wunderground v.1.15,2013-08-13 06:03:00,
2013-08-13 02:05:00,72.9,72.3,29.88,WNW,287,0.0,1.0,98,0.00,,,0.05,Wunderground v.1.15,2013-08-13 06:05:00,
2013-08-13 02:06:00,72.8,72.2,29.88,WNW,287,0.0,1.0,98,0.00,,,0.05,Wunderground v.1.15,2013-08-13 06:06:00,
2013-08-13 02:07:00,72.8,72.2,29.88,WNW,287,0.0,1.0,98,0.00,,,0.05,Wunderground v.1.15,2013-08-13 06:07:00,
2013-08-13 02:08:00,72.8,72.2,29.89,WNW,287,0.0,1.0,98,0.00,,,0.05,Wunderground v.1.15,2013-08-13 06:08:00,
2013-08-13 02:09:00,72.8,72.2,29.89,WNW,287,0.0,1.0,98,0.00,,,0.05,Wunderground v.1.15,2013-08-13 06:09:00,
2013-08-13 02:10:00,72.8,72.2,29.88,WNW,287,0.0,0.0,98,0.00,,,0.05,Wunderground v.1.15,2013-08-13 06:10:00,
2013-08-13 02:11:00,72.7,72.1,29.89,WNW,287,0.0,0.0,98,0.00,,,0.05,Wunderground v.1.15,2013-08-13 06:11:00,
2013-08-13 02:12:00,72.7,72.1,29.88,WNW,287,0.0,0.0,98,0.00,,,0.05,Wunderground v.1.15,2013-08-13 06:12:00,
2013-08-13 02:13:00,72.7,72.1,29.88,WNW,287,0.0,0.0,98,0.00,,,0.05,Wunderground v.1.15,2013-08-13 06:13:00,
2013-08-13 02:14:00,72.7,72.1,29.88,WNW,287,0.0,0.0,98,0.00,,,0.05,Wunderground v.1.15,2013-08-13 06:14:00,
2013-08-13 02:15:00,72.6,72.0,29.88,WNW,287,0.0,0.0,98,0.00,,,0.05,Wunderground v.1.15,2013-08-13 06:15:00,
2013-08-13 02:16:00,72.6,72.0,29.88,WNW,287,0.0,0.0,98,0.00,,,0.05,Wunderground v.1.15,2013-08-13 06:16:00,
2013-08-13 02:17:00,72.6,72.0,29.88,WNW,287,0.0,0.0,98,0.00,,,0.05,Wunderground v.1.15,2013-08-13 06:17:00,
2013-08-13 02:18:00,72.6,72.0,29.88,WNW,287,0.0,0.0,98,0.00,,,0.05,Wunderground v.1.15,2013-08-13 06:18:00,
2013-08-13 02:19:00,72.6,72.0,29.88,WNW,287,0.0,0.0,98,0.00,,,0.05,Wunderground v.1.15,2013-08-13 06:19:00,
2013-08-13 02:20:00,72.6,72.0,29.88,WNW,287,0.0,0.0,98,0.00,,,0.05,Wunderground v.1.15,2013-08-13 06:20:00,
2013-08-13 02:21:00,72.6,72.0,29.88,WNW,287,0.0,0.0,98,0.00,,,0.05,Wunderground v.1.15,2013-08-13 06:21:00,
2013-08-13 02:22:00,72.5,71.9,29.88,WNW,287,0.0,0.0,98,0.00,,,0.05,Wunderground v.1.15,2013-08-13 06:22:00,
2013-08-13 02:24:00,72.5,71.9,29.88,WNW,287,0.0,0.0,98,0.00,,,0.05,Wunderground v.1.15,2013-08-13 06:24:00,
2013-08-13 02:25:00,72.5,71.9,29.88,WNW,287,0.0,0.0,98,0.00,,,0.05,Wunderground v.1.15,2013-08-13 06:25:00,
2013-08-13 02:26:00,72.4,71.8,29.88,WNW,287,2.0,2.0,98,0.00,,,0.05,Wunderground v.1.15,2013-08-13 06:26:00,
2013-08-13 02:28:00,72.4,71.8,29.88,WNW,287,0.0,2.0,98,0.00,,,0.05,Wunderground v.1.15,2013-08-13 06:28:00,
2013-08-13 02:29:00,72.4,71.8,29.88,WNW,287,0.0,2.0,98,0.00,,,0.05,Wunderground v.1.15,2013-08-13 06:29:00,
2013-08-13 02:30:00,72.4,71.8,29.88,WNW,287,0.0,1.0,98,0.00,,,0.05,Wunderground v.1.15,2013-08-13 06:30:00,
2013-08-13 02:32:00,72.4,71.8,29.88,WNW,287,3.0,3.0,98,0.00,,,0.05,Wunderground v.1.15,2013-08-13 06:32:00,
2013-08-13 02:33:00,72.3,71.7,29.88,WNW,287,3.0,3.0,98,0.00,,,0.05,Wunderground v.1.15,2013-08-13 06:33:00,
2013-08-13 02:34:00,72.3,71.7,29.88,WNW,287,1.0,3.0,98,0.00,,,0.05,Wunderground v.1.15,2013-08-13 06:34:00,
2013-08-13 02:35:00,72.3,71.7,29.88,WNW,287,1.0,3.0,98,0.00,,,0.05,Wunderground v.1.15,2013-08-13 06:35:00,
2013-08-13 02:36:00,72.2,71.6,29.88,WNW,287,0.0,3.0,98,0.00,,,0.05,Wunderground v.1.15,2013-08-13 06:36:00,
2013-08-13 02:37:00,72.2,71.6,29.88,WNW,287,1.0,3.0,98,0.00,,,0.05,Wunderground v.1.15,2013-08-13 06:37:00,
2013-08-13 02:38:00,72.2,71.6,29.88,WNW,287,1.0,3.0,98,0.00,,,0.05,Wunderground v.1.15,2013-08-13 06:38:00,
2013-08-13 02:39:00,72.2,71.6,29.88,WNW,287,0.0,3.0,98,0.00,,,0.05,Wunderground v.1.15,2013-08-13 06:39:00,
2013-08-13 02:40:00,72.2,71.6,29.88,WNW,287,0.0,1.0,98,0.00,,,0.05,Wunderground v.1.15,2013-08-13 06:40:00,
2013-08-13 02:41:00,72.1,71.5,29.88,WNW,287,0.0,1.0,98,0.00,,,0.05,Wunderground v.1.15,2013-08-13 06:41:00,
2013-08-13 02:43:00,72.1,71.5,29.88,WNW,287,0.0,1.0,98,0.00,,,0.05,Wunderground v.1.15,2013-08-13 06:43:00,
2013-08-13 02:44:00,72.1,71.5,29.88,WNW,287,0.0,1.0,98,0.00,,,0.05,Wunderground v.1.15,2013-08-13 06:44:00,
2013-08-13 02:45:00,72.1,71.5,29.88,WNW,287,0.0,1.0,98,0.00,,,0.05,Wunderground v.1.15,2013-08-13 06:45:00,
2013-08-13 02:47:00,72.0,71.4,29.88,WNW,287,0.0,1.0,98,0.00,,,0.05,Wunderground v.1.15,2013-08-13 06:47:00,
2013-08-13 02:48:00,72.0,71.4,29.88,WNW,287,0.0,1.0,98,0.00,,,0.05,Wunderground v.1.15,2013-08-13 06:48:00,
2013-08-13 02:49:00,71.9,71.3,29.88,WNW,287,1.0,1.0,98,0.00,,,0.05,Wunderground v.1.15,2013-08-13 06:49:00,
2013-08-13 02:51:00,71.8,71.2,29.88,WNW,287,0.0,1.0,98,0.00,,,0.05,Wunderground v.1.15,2013-08-13 06:51:00,
2013-08-13 02:52:00,71.8,71.2,29.88,WNW,287,0.0,1.0,98,0.00,,,0.05,Wunderground v.1.15,2013-08-13 06:52:00,
2013-08-13 02:53:00,71.8,71.2,29.88,WNW,287,1.0,1.0,98,0.00,,,0.05,Wunderground v.1.15,2013-08-13 06:53:00,
2013-08-13 02:54:00,71.7,71.1,29.88,WNW,287,0.0,1.0,98,0.00,,,0.05,Wunderground v.1.15,2013-08-13 06:54:00,
2013-08-13 02:56:00,71.6,70.7,29.88,WNW,287,1.0,1.0,97,0.00,,,0.05,Wunderground v.1.15,2013-08-13 06:56:00,
2013-08-13 02:57:00,71.6,70.7,29.88,WNW,287,1.0,1.0,97,0.00,,,0.05,Wunderground v.1.15,2013-08-13 06:57:00,
2013-08-13 02:58:00,71.6,71.0,29.88,WNW,287,1.0,1.0,98,0.00,,,0.05,Wunderground v.1.15,2013-08-13 06:58:00,
2013-08-13 02:59:00,71.5,70.9,29.88,WNW,287,0.0,1.0,98,0.00,,,0.05,Wunderground v.1.15,2013-08-13 06:59:00,
2013-08-13 03:00:00,71.5,70.9,29.88,WNW,287,0.0,0.0,98,0.00,,,0.05,Wunderground v.1.15,2013-08-13 07:00:00,
2013-08-13 03:01:00,71.5,70.9,29.88,WNW,287,0.0,0.0,98,0.00,,,0.05,Wunderground v.1.15,2013-08-13 07:01:00,
2013-08-13 03:02:00,71.5,70.9,29.87,WNW,287,0.0,1.0,98,0.00,,,0.05,Wunderground v.1.15,2013-08-13 07:02:00,
2013-08-13 03:03:00,71.5,70.9,29.88,WNW,287,0.0,1.0,98,0.00,,,0.05,Wunderground v.1.15,2013-08-13 07:03:00,
2013-08-13 03:04:00,71.5,70.9,29.88,WNW,287,0.0,1.0,98,0.00,,,0.05,Wunderground v.1.15,2013-08-13 07:04:00,
2013-08-13 03:05:00,71.5,70.9,29.88,WNW,287,0.0,1.0,98,0.00,,,0.05,Wunderground v.1.15,2013-08-13 07:05:00,
2013-08-13 03:06:00,71.4,70.8,29.88,WNW,287,0.0,1.0,98,0.00,,,0.05,Wunderground v.1.15,2013-08-13 07:06:00,
2013-08-13 03:07:00,71.4,70.8,29.88,WNW,287,0.0,1.0,98,0.00,,,0.05,Wunderground v.1.15,2013-08-13 07:07:00,
2013-08-13 03:08:00,71.4,70.8,29.88,WNW,287,0.0,1.0,98,0.00,,,0.05,Wunderground v.1.15,2013-08-13 07:08:00,
2013-08-13 03:09:00,71.4,70.8,29.88,WNW,287,0.0,1.0,98,0.00,,,0.05,Wunderground v.1.15,2013-08-13 07:09:00,
2013-08-13 03:10:00,71.3,70.7,29.88,WNW,287,0.0,0.0,98,0.00,,,0.05,Wunderground v.1.15,2013-08-13 07:10:00,
2013-08-13 03:12:00,71.3,70.7,29.88,WNW,287,0.0,0.0,98,0.00,,,0.05,Wunderground v.1.15,2013-08-13 07:12:00,
2013-08-13 03:14:00,71.3,70.7,29.88,WNW,287,0.0,0.0,98,0.00,,,0.05,Wunderground v.1.15,2013-08-13 07:14:00,
2013-08-13 03:15:00,71.3,70.7,29.88,WNW,287,0.0,0.0,98,0.00,,,0.05,Wunderground v.1.15,2013-08-13 07:15:00,
2013-08-13 03:16:00,71.3,70.7,29.88,WNW,287,0.0,0.0,98,0.00,,,0.05,Wunderground v.1.15,2013-08-13 07:16:00,
2013-08-13 03:17:00,71.3,70.7,29.88,WNW,287,0.0,0.0,98,0.00,,,0.05,Wunderground v.1.15,2013-08-13 07:17:00,
2013-08-13 03:19:00,71.3,70.7,29.88,WNW,287,0.0,0.0,98,0.00,,,0.05,Wunderground v.1.15,2013-08-13 07:19:00,
2013-08-13 03:21:00,71.2,70.6,29.88,WNW,287,0.0,0.0,98,0.00,,,0.05,Wunderground v.1.15,2013-08-13 07:21:00,
2013-08-13 03:22:00,71.2,70.6,29.88,WNW,287,0.0,0.0,98,0.00,,,0.05,Wunderground v.1.15,2013-08-13 07:22:00,
2013-08-13 03:25:00,71.2,70.6,29.88,WNW,287,0.0,0.0,98,0.00,,,0.05,Wunderground v.1.15,2013-08-13 07:25:00,
2013-08-13 03:26:00,71.2,70.6,29.88,WNW,287,0.0,0.0,98,0.00,,,0.05,Wunderground v.1.15,2013-08-13 07:26:00,
2013-08-13 03:27:00,71.2,70.6,29.88,WNW,287,0.0,0.0,98,0.00,,,0.05,Wunderground v.1.15,2013-08-13 07:27:00,
2013-08-13 03:28:00,71.2,70.6,29.88,WNW,287,0.0,0.0,98,0.00,,,0.05,Wunderground v.1.15,2013-08-13 07:28:00,
2013-08-13 03:30:00,71.2,70.6,29.88,WNW,287,0.0,0.0,98,0.00,,,0.05,Wunderground v.1.15,2013-08-13 07:30:00,
2013-08-13 03:31:00,71.2,70.6,29.88,WNW,287,0.0,0.0,98,0.00,,,0.05,Wunderground v.1.15,2013-08-13 07:31:00,
2013-08-13 03:33:00,71.2,70.6,29.88,WNW,287,0.0,0.0,98,0.00,,,0.05,Wunderground v.1.15,2013-08-13 07:33:00,
2013-08-13 03:35:00,71.2,70.6,29.88,WNW,287,0.0,1.0,98,0.00,,,0.05,Wunderground v.1.15,2013-08-13 07:35:00,
2013-08-13 03:36:00,71.2,70.6,29.88,WNW,287,0.0,1.0,98,0.00,,,0.05,Wunderground v.1.15,2013-08-13 07:36:00,
2013-08-13 03:38:00,71.3,70.7,29.88,WNW,287,0.0,1.0,98,0.00,,,0.05,Wunderground v.1.15,2013-08-13 07:38:00,
2013-08-13 03:41:00,71.3,70.7,29.88,WNW,287,0.0,1.0,98,0.00,,,0.05,Wunderground v.1.15,2013-08-13 07:41:00,
2013-08-13 03:43:00,71.3,70.7,29.88,WNW,287,0.0,1.0,98,0.00,,,0.05,Wunderground v.1.15,2013-08-13 07:43:00,
2013-08-13 03:46:00,71.3,70.7,29.88,WNW,287,0.0,1.0,98,0.00,,,0.05,Wunderground v.1.15,2013-08-13 07:46:00,
2013-08-13 03:47:00,71.3,70.7,29.88,WNW,287,0.0,1.0,98,0.00,,,0.05,Wunderground v.1.15,2013-08-13 07:47:00,
2013-08-13 03:48:00,71.3,70.7,29.88,WNW,287,0.0,1.0,98,0.00,,,0.05,Wunderground v.1.15,2013-08-13 07:48:00,
2013-08-13 03:52:00,71.3,70.7,29.88,WNW,287,0.0,1.0,98,0.00,,,0.05,Wunderground v.1.15,2013-08-13 07:52:00,
2013-08-13 03:53:00,71.3,70.7,29.88,WNW,287,0.0,1.0,98,0.00,,,0.05,Wunderground v.1.15,2013-08-13 07:53:00,
2013-08-13 03:57:00,71.3,70.7,29.87,WNW,287,0.0,1.0,98,0.00,,,0.05,Wunderground v.1.15,2013-08-13 07:57:00,
2013-08-13 03:58:00,71.3,70.7,29.87,WNW,287,0.0,1.0,98,0.00,,,0.05,Wunderground v.1.15,2013-08-13 07:58:00,
2013-08-13 03:59:00,71.3,70.7,29.87,WNW,287,0.0,0.0,98,0.00,,,0.05,Wunderground v.1.15,2013-08-13 07:59:00,
2013-08-13 04:02:00,71.3,70.7,29.87,WNW,287,0.0,1.0,98,0.00,,,0.05,Wunderground v.1.15,2013-08-13 08:02:00,
2013-08-13 04:03:00,71.2,70.6,29.87,WNW,287,0.0,1.0,98,0.00,,,0.05,Wunderground v.1.15,2013-08-13 08:03:00,
2013-08-13 04:05:00,71.2,70.6,29.87,WNW,287,0.0,1.0,98,0.00,,,0.05,Wunderground v.1.15,2013-08-13 08:05:00,
2013-08-13 04:07:00,71.1,70.5,29.87,WNW,287,0.0,1.0,98,0.00,,,0.05,Wunderground v.1.15,2013-08-13 08:07:00,
2013-08-13 04:08:00,71.1,70.5,29.87,WNW,287,0.0,1.0,98,0.00,,,0.05,Wunderground v.1.15,2013-08-13 08:08:00,
2013-08-13 04:11:00,71.1,70.5,29.87,WNW,287,0.0,0.0,98,0.00,,,0.05,Wunderground v.1.15,2013-08-13 08:11:00,
2013-08-13 04:12:00,71.0,70.4,29.87,WNW,287,0.0,0.0,98,0.00,,,0.05,Wunderground v.1.15,2013-08-13 08:12:00,
2013-08-13 04:13:00,71.0,70.4,29.87,WNW,287,0.0,0.0,98,0.00,,,0.05,Wunderground v.1.15,2013-08-13 08:13:00,
2013-08-13 04:14:00,71.0,70.4,29.87,WNW,287,0.0,0.0,98,0.00,,,0.05,Wunderground v.1.15,2013-08-13 08:14:00,
2013-08-13 04:16:00,71.0,70.4,29.87,WNW,287,0.0,0.0,98,0.00,,,0.05,Wunderground v.1.15,2013-08-13 08:16:00,
2013-08-13 04:17:00,70.9,70.3,29.87,WNW,287,0.0,0.0,98,0.00,,,0.05,Wunderground v.1.15,2013-08-13 08:17:00,
2013-08-13 04:18:00,70.9,70.3,29.87,WNW,287,0.0,0.0,98,0.00,,,0.05,Wunderground v.1.15,2013-08-13 08:18:00,
2013-08-13 04:19:00,70.8,70.2,29.87,WNW,287,0.0,0.0,98,0.00,,,0.05,Wunderground v.1.15,2013-08-13 08:19:00,
2013-08-13 04:21:00,70.8,70.2,29.87,WNW,287,0.0,0.0,98,0.00,,,0.05,Wunderground v.1.15,2013-08-13 08:21:00,
2013-08-13 04:23:00,70.7,70.1,29.87,WNW,287,0.0,0.0,98,0.00,,,0.05,Wunderground v.1.15,2013-08-13 08:23:00,
2013-08-13 04:24:00,70.7,70.1,29.87,WNW,287,0.0,0.0,98,0.00,,,0.05,Wunderground v.1.15,2013-08-13 08:24:00,
2013-08-13 04:25:00,70.7,70.1,29.87,WNW,287,0.0,0.0,98,0.00,,,0.05,Wunderground v.1.15,2013-08-13 08:25:00,
2013-08-13 04:26:00,70.6,70.0,29.87,WNW,287,0.0,0.0,98,0.00,,,0.05,Wunderground v.1.15,2013-08-13 08:26:00,
2013-08-13 04:28:00,70.6,70.0,29.87,WNW,287,0.0,0.0,98,0.00,,,0.05,Wunderground v.1.15,2013-08-13 08:28:00,
2013-08-13 04:29:00,70.6,70.0,29.87,WNW,287,0.0,0.0,98,0.00,,,0.05,Wunderground v.1.15,2013-08-13 08:29:00,
2013-08-13 04:30:00,70.6,70.0,29.87,WNW,287,0.0,0.0,98,0.00,,,0.05,Wunderground v.1.15,2013-08-13 08:30:00,
2013-08-13 04:31:00,70.6,70.0,29.87,WNW,287,0.0,0.0,98,0.00,,,0.05,Wunderground v.1.15,2013-08-13 08:31:00,
2013-08-13 04:33:00,70.5,69.9,29.87,WNW,287,0.0,0.0,98,0.00,,,0.05,Wunderground v.1.15,2013-08-13 08:33:00,
2013-08-13 04:35:00,70.4,69.8,29.86,WNW,287,0.0,0.0,98,0.00,,,0.05,Wunderground v.1.15,2013-08-13 08:35:00,
2013-08-13 04:36:00,70.4,69.8,29.86,WNW,287,0.0,0.0,98,0.00,,,0.05,Wunderground v.1.15,2013-08-13 08:36:00,
2013-08-13 04:39:00,70.4,69.8,29.86,WNW,287,0.0,0.0,98,0.00,,,0.05,Wunderground v.1.15,2013-08-13 08:39:00,
2013-08-13 04:40:00,70.4,69.8,29.86,WNW,287,0.0,0.0,98,0.00,,,0.05,Wunderground v.1.15,2013-08-13 08:40:00,
2013-08-13 04:41:00,70.4,69.8,29.86,WNW,287,0.0,0.0,98,0.00,,,0.05,Wunderground v.1.15,2013-08-13 08:41:00,
2013-08-13 04:42:00,70.4,69.8,29.86,WNW,287,0.0,0.0,98,0.00,,,0.05,Wunderground v.1.15,2013-08-13 08:42:00,
2013-08-13 04:44:00,70.4,69.8,29.86,WNW,287,0.0,0.0,98,0.00,,,0.05,Wunderground v.1.15,2013-08-13 08:44:00,
2013-08-13 04:45:00,70.4,69.8,29.86,WNW,287,0.0,0.0,98,0.00,,,0.05,Wunderground v.1.15,2013-08-13 08:45:00,
2013-08-13 04:46:00,70.4,69.8,29.86,WNW,287,0.0,0.0,98,0.00,,,0.05,Wunderground v.1.15,2013-08-13 08:46:00,
2013-08-13 04:47:00,70.4,69.8,29.86,WNW,287,0.0,0.0,98,0.00,,,0.05,Wunderground v.1.15,2013-08-13 08:47:00,
2013-08-13 04:49:00,70.5,69.9,29.86,WNW,287,0.0,0.0,98,0.00,,,0.05,Wunderground v.1.15,2013-08-13 08:49:00,
2013-08-13 04:50:00,70.6,70.0,29.86,WNW,287,0.0,0.0,98,0.00,,,0.05,Wunderground v.1.15,2013-08-13 08:50:00,
2013-08-13 04:51:00,70.6,70.0,29.86,WNW,287,0.0,0.0,98,0.00,,,0.05,Wunderground v.1.15,2013-08-13 08:51:00,
2013-08-13 04:52:00,70.7,70.1,29.86,WNW,287,0.0,0.0,98,0.00,,,0.05,Wunderground v.1.15,2013-08-13 08:52:00,
2013-08-13 04:54:00,70.7,70.1,29.86,WNW,287,0.0,0.0,98,0.00,,,0.05,Wunderground v.1.15,2013-08-13 08:54:00,
2013-08-13 04:55:00,70.7,70.1,29.86,WNW,287,1.0,1.0,98,0.00,,,0.05,Wunderground v.1.15,2013-08-13 08:55:00,
2013-08-13 04:56:00,70.7,70.1,29.86,WNW,287,0.0,1.0,98,0.00,,,0.05,Wunderground v.1.15,2013-08-13 08:56:00,
2013-08-13 04:57:00,70.7,70.1,29.86,WNW,287,0.0,1.0,98,0.00,,,0.05,Wunderground v.1.15,2013-08-13 08:57:00,
2013-08-13 04:59:00,70.7,70.1,29.86,WNW,287,0.0,1.0,98,0.00,,,0.05,Wunderground v.1.15,2013-08-13 08:59:00,
2013-08-13 05:00:00,70.7,70.1,29.86,WNW,287,0.0,0.0,98,0.00,,,0.05,Wunderground v.1.15,2013-08-13 09:00:00,
2013-08-13 05:01:00,70.7,70.1,29.86,WNW,287,0.0,0.0,98,0.00,,,0.05,Wunderground v.1.15,2013-08-13 09:01:00,
2013-08-13 05:02:00,70.7,70.1,29.86,WNW,287,0.0,0.0,98,0.00,,,0.05,Wunderground v.1.15,2013-08-13 09:02:00,
2013-08-13 05:03:00,70.7,70.1,29.86,WNW,287,0.0,0.0,98,0.00,,,0.05,Wunderground v.1.15,2013-08-13 09:03:00,
2013-08-13 05:04:00,70.8,70.2,29.86,WNW,287,0.0,0.0,98,0.00,,,0.05,Wunderground v.1.15,2013-08-13 09:04:00,
2013-08-13 05:06:00,70.8,70.2,29.86,WNW,287,0.0,0.0,98,0.00,,,0.05,Wunderground v.1.15,2013-08-13 09:06:00,
2013-08-13 05:08:00,70.8,70.2,29.86,WNW,287,0.0,1.0,98,0.00,,,0.05,Wunderground v.1.15,2013-08-13 09:08:00,
2013-08-13 05:09:00,70.8,70.2,29.86,WNW,287,0.0,0.0,98,0.00,,,0.05,Wunderground v.1.15,2013-08-13 09:09:00,
2013-08-13 05:11:00,70.8,70.2,29.86,WNW,287,0.0,0.0,98,0.00,,,0.05,Wunderground v.1.15,2013-08-13 09:11:00,
2013-08-13 05:12:00,70.8,70.2,29.86,WNW,287,0.0,0.0,98,0.00,,,0.05,Wunderground v.1.15,2013-08-13 09:12:00,
2013-08-13 05:13:00,70.8,70.2,29.86,WNW,287,0.0,0.0,98,0.00,,,0.05,Wunderground v.1.15,2013-08-13 09:13:00,
2013-08-13 05:15:00,70.8,70.2,29.87,WNW,287,0.0,0.0,98,0.00,,,0.05,Wunderground v.1.15,2013-08-13 09:15:00,
2013-08-13 05:16:00,70.8,70.2,29.86,WNW,287,0.0,0.0,98,0.00,,,0.05,Wunderground v.1.15,2013-08-13 09:16:00,
2013-08-13 05:17:00,70.9,70.3,29.86,WNW,287,0.0,0.0,98,0.00,,,0.05,Wunderground v.1.15,2013-08-13 09:17:00,
2013-08-13 05:18:00,70.8,70.2,29.86,WNW,287,0.0,0.0,98,0.00,,,0.05,Wunderground v.1.15,2013-08-13 09:18:00,
2013-08-13 05:20:00,70.9,70.3,29.86,WNW,287,0.0,0.0,98,0.00,,,0.05,Wunderground v.1.15,2013-08-13 09:20:00,
2013-08-13 05:21:00,70.9,70.3,29.86,WNW,287,0.0,0.0,98,0.00,,,0.05,Wunderground v.1.15,2013-08-13 09:21:00,
2013-08-13 05:22:00,70.9,70.3,29.86,WNW,287,0.0,0.0,98,0.00,,,0.05,Wunderground v.1.15,2013-08-13 09:22:00,
2013-08-13 05:23:00,70.9,70.3,29.86,WNW,287,0.0,0.0,98,0.00,,,0.05,Wunderground v.1.15,2013-08-13 09:23:00,
2013-08-13 05:25:00,70.9,70.3,29.86,WNW,287,0.0,0.0,98,0.00,,,0.06,Wunderground v.1.15,2013-08-13 09:25:00,
2013-08-13 05:27:00,70.9,70.3,29.86,WNW,287,0.0,0.0,98,0.00,,,0.06,Wunderground v.1.15,2013-08-13 09:27:00,
2013-08-13 05:28:00,70.9,70.3,29.86,WNW,287,0.0,0.0,98,0.00,,,0.06,Wunderground v.1.15,2013-08-13 09:28:00,
2013-08-13 05:29:00,70.9,70.3,29.86,WNW,287,0.0,0.0,98,0.00,,,0.06,Wunderground v.1.15,2013-08-13 09:29:00,
2013-08-13 05:31:00,70.9,70.3,29.86,WNW,287,0.0,0.0,98,0.00,,,0.06,Wunderground v.1.15,2013-08-13 09:31:00,
2013-08-13 05:32:00,71.0,70.4,29.86,WNW,287,0.0,0.0,98,0.07,,,0.07,Wunderground v.1.15,2013-08-13 09:32:00,
2013-08-13 05:33:00,71.0,70.4,29.86,WNW,287,0.0,0.0,98,0.07,,,0.07,Wunderground v.1.15,2013-08-13 09:33:00,
2013-08-13 05:34:00,71.0,70.4,29.86,WNW,287,0.0,0.0,98,0.07,,,0.07,Wunderground v.1.15,2013-08-13 09:34:00,
2013-08-13 05:36:00,71.0,70.4,29.86,WNW,287,0.0,0.0,98,0.07,,,0.07,Wunderground v.1.15,2013-08-13 09:36:00,
2013-08-13 05:37:00,71.0,70.4,29.86,WNW,287,0.0,0.0,98,0.07,,,0.07,Wunderground v.1.15,2013-08-13 09:37:00,
2013-08-13 05:39:00,71.1,70.5,29.86,WNW,287,0.0,0.0,98,0.07,,,0.07,Wunderground v.1.15,2013-08-13 09:39:00,
2013-08-13 05:41:00,71.1,70.5,29.86,WNW,287,0.0,0.0,98,0.06,,,0.07,Wunderground v.1.15,2013-08-13 09:41:00,
2013-08-13 05:42:00,71.1,70.5,29.86,WNW,287,0.0,0.0,98,0.06,,,0.07,Wunderground v.1.15,2013-08-13 09:42:00,
2013-08-13 05:44:00,71.1,70.5,29.87,WNW,287,0.0,0.0,98,0.05,,,0.07,Wunderground v.1.15,2013-08-13 09:44:00,
2013-08-13 05:46:00,71.1,70.5,29.87,WNW,287,0.0,1.0,98,0.04,,,0.07,Wunderground v.1.15,2013-08-13 09:46:00,
2013-08-13 05:48:00,71.1,70.5,29.87,WNW,287,0.0,1.0,98,0.04,,,0.07,Wunderground v.1.15,2013-08-13 09:48:00,
2013-08-13 05:49:00,71.1,70.5,29.87,WNW,287,0.0,1.0,98,0.00,,,0.07,Wunderground v.1.15,2013-08-13 09:49:00,
2013-08-13 05:50:00,71.1,70.5,29.87,WNW,287,0.0,1.0,98,0.00,,,0.07,Wunderground v.1.15,2013-08-13 09:50:00,
2013-08-13 05:51:00,71.1,70.5,29.87,WNW,287,0.0,1.0,98,0.00,,,0.07,Wunderground v.1.15,2013-08-13 09:51:00,
2013-08-13 05:53:00,71.1,70.5,29.87,WNW,287,0.0,1.0,98,0.00,,,0.07,Wunderground v.1.15,2013-08-13 09:53:00,
2013-08-13 05:55:00,71.1,70.8,29.87,WNW,287,0.0,1.0,99,0.00,,,0.07,Wunderground v.1.15,2013-08-13 09:55:00,
2013-08-13 05:57:00,71.2,70.9,29.88,WNW,287,1.0,1.0,99,0.00,,,0.07,Wunderground v.1.15,2013-08-13 09:57:00,
2013-08-13 05:58:00,71.2,70.9,29.88,WNW,287,1.0,2.0,99,0.00,,,0.07,Wunderground v.1.15,2013-08-13 09:58:00,
2013-08-13 06:00:00,71.2,70.9,29.88,WNW,287,0.0,0.0,99,0.00,,,0.07,Wunderground v.1.15,2013-08-13 10:00:00,
2013-08-13 06:02:00,71.2,70.9,29.87,WNW,287,1.0,1.0,99,0.00,,,0.07,Wunderground v.1.15,2013-08-13 10:02:00,
2013-08-13 06:03:00,71.2,70.9,29.87,WNW,287,0.0,1.0,99,0.00,,,0.07,Wunderground v.1.15,2013-08-13 10:03:00,
2013-08-13 06:05:00,71.2,70.9,29.88,WNW,287,0.0,1.0,99,0.00,,,0.07,Wunderground v.1.15,2013-08-13 10:05:00,
2013-08-13 06:06:00,71.2,70.9,29.88,WNW,287,0.0,1.0,99,0.00,,,0.07,Wunderground v.1.15,2013-08-13 10:06:00,
2013-08-13 06:07:00,71.2,70.9,29.88,WNW,287,0.0,1.0,99,0.00,,,0.07,Wunderground v.1.15,2013-08-13 10:07:00,
2013-08-13 06:08:00,71.2,70.9,29.88,WNW,287,0.0,1.0,99,0.00,,,0.07,Wunderground v.1.15,2013-08-13 10:08:00,
2013-08-13 06:10:00,71.2,70.9,29.88,WNW,287,0.0,0.0,99,0.00,,,0.07,Wunderground v.1.15,2013-08-13 10:10:00,
2013-08-13 06:12:00,71.2,70.9,29.88,WNW,287,0.0,0.0,99,0.00,,,0.07,Wunderground v.1.15,2013-08-13 10:12:00,
2013-08-13 06:13:00,71.2,70.9,29.89,WNW,287,0.0,0.0,99,0.00,,,0.07,Wunderground v.1.15,2013-08-13 10:13:00,
2013-08-13 06:16:00,71.3,71.0,29.89,WNW,287,0.0,0.0,99,0.00,,,0.07,Wunderground v.1.15,2013-08-13 10:16:00,
2013-08-13 06:17:00,71.3,71.0,29.88,WNW,287,0.0,0.0,99,0.00,,,0.07,Wunderground v.1.15,2013-08-13 10:17:00,
2013-08-13 06:18:00,71.3,71.0,29.88,WNW,287,0.0,0.0,99,0.00,,,0.07,Wunderground v.1.15,2013-08-13 10:18:00,
2013-08-13 06:21:00,71.3,71.0,29.89,WNW,287,0.0,0.0,99,0.00,,,0.07,Wunderground v.1.15,2013-08-13 10:21:00,
2013-08-13 06:22:00,71.3,71.0,29.89,WNW,287,1.0,2.0,99,0.00,,,0.07,Wunderground v.1.15,2013-08-13 10:22:00,
2013-08-13 06:24:00,71.3,71.0,29.89,WNW,287,0.0,2.0,99,0.00,,,0.07,Wunderground v.1.15,2013-08-13 10:24:00,
2013-08-13 06:26:00,71.3,71.0,29.89,WNW,287,0.0,2.0,99,0.00,,,0.07,Wunderground v.1.15,2013-08-13 10:26:00,
2013-08-13 06:27:00,71.3,71.0,29.88,WNW,287,0.0,2.0,99,0.00,,,0.07,Wunderground v.1.15,2013-08-13 10:27:00,
2013-08-13 06:28:00,71.3,71.0,29.89,WNW,287,0.0,2.0,99,0.00,,,0.07,Wunderground v.1.15,2013-08-13 10:28:00,
2013-08-13 06:29:00,71.3,71.0,29.89,WNW,287,0.0,2.0,99,0.00,,,0.07,Wunderground v.1.15,2013-08-13 10:29:00,
2013-08-13 06:31:00,71.3,71.0,29.88,WNW,287,2.0,2.0,99,0.00,,,0.07,Wunderground v.1.15,2013-08-13 10:31:00,
2013-08-13 06:32:00,71.3,71.0,29.88,WNW,287,1.0,2.0,99,0.00,,,0.07,Wunderground v.1.15,2013-08-13 10:32:00,
2013-08-13 06:33:00,71.3,71.0,29.88,WNW,287,0.0,2.0,99,0.00,,,0.07,Wunderground v.1.15,2013-08-13 10:33:00,
2013-08-13 06:35:00,71.3,71.0,29.88,WNW,287,0.0,2.0,99,0.00,,,0.07,Wunderground v.1.15,2013-08-13 10:35:00,
2013-08-13 06:36:00,71.2,70.9,29.88,WNW,287,1.0,2.0,99,0.00,,,0.07,Wunderground v.1.15,2013-08-13 10:36:00,
2013-08-13 06:37:00,71.3,71.0,29.88,WNW,287,0.0,2.0,99,0.00,,,0.07,Wunderground v.1.15,2013-08-13 10:37:00,
2013-08-13 06:39:00,71.3,71.0,29.88,WNW,287,0.0,2.0,99,0.00,,,0.07,Wunderground v.1.15,2013-08-13 10:39:00,
2013-08-13 06:40:00,71.3,71.0,29.88,WNW,287,0.0,1.0,99,0.00,,,0.07,Wunderground v.1.15,2013-08-13 10:40:00,
2013-08-13 06:41:00,71.3,71.0,29.88,WNW,287,0.0,1.0,99,0.00,,,0.07,Wunderground v.1.15,2013-08-13 10:41:00,
2013-08-13 06:42:00,71.3,71.0,29.88,WNW,287,0.0,1.0,99,0.00,,,0.07,Wunderground v.1.15,2013-08-13 10:42:00,
2013-08-13 06:44:00,71.3,71.0,29.88,WNW,287,0.0,1.0,99,0.00,,,0.07,Wunderground v.1.15,2013-08-13 10:44:00,
2013-08-13 06:45:00,71.2,70.9,29.88,WNW,287,0.0,1.0,99,0.00,,,0.07,Wunderground v.1.15,2013-08-13 10:45:00,
2013-08-13 06:46:00,71.3,71.0,29.87,WNW,287,0.0,1.0,99,0.00,,,0.07,Wunderground v.1.15,2013-08-13 10:46:00,
2013-08-13 06:47:00,71.3,71.0,29.87,WNW,287,0.0,1.0,99,0.00,,,0.07,Wunderground v.1.15,2013-08-13 10:47:00,
2013-08-13 06:48:00,71.3,71.0,29.87,WNW,287,0.0,1.0,99,0.00,,,0.07,Wunderground v.1.15,2013-08-13 10:48:00,
2013-08-13 06:50:00,71.3,71.0,29.87,WNW,287,0.0,0.0,99,0.00,,,0.07,Wunderground v.1.15,2013-08-13 10:50:00,
2013-08-13 06:51:00,71.3,71.0,29.87,WNW,287,0.0,0.0,99,0.00,,,0.07,Wunderground v.1.15,2013-08-13 10:51:00,
2013-08-13 06:52:00,71.3,71.0,29.87,WNW,287,0.0,0.0,99,0.00,,,0.07,Wunderground v.1.15,2013-08-13 10:52:00,
2013-08-13 06:53:00,71.3,71.0,29.87,WNW,287,0.0,0.0,99,0.00,,,0.07,Wunderground v.1.15,2013-08-13 10:53:00,
2013-08-13 06:55:00,71.3,71.0,29.87,WNW,287,0.0,0.0,99,0.00,,,0.07,Wunderground v.1.15,2013-08-13 10:55:00,
2013-08-13 06:56:00,71.3,71.0,29.87,WNW,287,0.0,0.0,99,0.00,,,0.07,Wunderground v.1.15,2013-08-13 10:56:00,
2013-08-13 06:57:00,71.3,71.0,29.87,WNW,287,0.0,0.0,99,0.00,,,0.07,Wunderground v.1.15,2013-08-13 10:57:00,
2013-08-13 06:58:00,71.3,71.0,29.87,WNW,287,0.0,0.0,99,0.00,,,0.07,Wunderground v.1.15,2013-08-13 10:58:00,
2013-08-13 07:00:00,71.3,71.0,29.88,WNW,287,0.0,3.0,99,0.00,,,0.07,Wunderground v.1.15,2013-08-13 11:00:00,
2013-08-13 07:02:00,71.3,71.0,29.88,WNW,287,0.0,3.0,99,0.00,,,0.07,Wunderground v.1.15,2013-08-13 11:02:00,
2013-08-13 07:03:00,71.3,71.0,29.88,WNW,287,0.0,3.0,99,0.00,,,0.07,Wunderground v.1.15,2013-08-13 11:03:00,
2013-08-13 07:05:00,71.3,71.0,29.88,WNW,287,0.0,3.0,99,0.00,,,0.07,Wunderground v.1.15,2013-08-13 11:05:00,
2013-08-13 07:07:00,71.3,71.0,29.88,WNW,287,0.0,3.0,99,0.00,,,0.07,Wunderground v.1.15,2013-08-13 11:07:00,
2013-08-13 07:08:00,71.3,71.0,29.88,WNW,287,0.0,3.0,99,0.00,,,0.07,Wunderground v.1.15,2013-08-13 11:08:00,
2013-08-13 07:11:00,71.3,71.0,29.88,WNW,287,0.0,0.0,99,0.00,,,0.07,Wunderground v.1.15,2013-08-13 11:11:00,
2013-08-13 07:12:00,71.3,71.0,29.88,WNW,287,0.0,0.0,99,0.00,,,0.07,Wunderground v.1.15,2013-08-13 11:12:00,
2013-08-13 07:13:00,71.3,71.0,29.88,WNW,287,0.0,0.0,99,0.00,,,0.07,Wunderground v.1.15,2013-08-13 11:13:00,
2013-08-13 07:17:00,71.3,71.0,29.88,WNW,287,0.0,0.0,99,0.00,,,0.07,Wunderground v.1.15,2013-08-13 11:17:00,
2013-08-13 07:18:00,71.4,71.1,29.88,WNW,287,0.0,0.0,99,0.00,,,0.07,Wunderground v.1.15,2013-08-13 11:18:00,
2013-08-13 07:19:00,71.3,71.0,29.88,WNW,287,0.0,0.0,99,0.00,,,0.07,Wunderground v.1.15,2013-08-13 11:19:00,
2013-08-13 07:22:00,71.4,71.1,29.88,WNW,287,0.0,0.0,99,0.00,,,0.07,Wunderground v.1.15,2013-08-13 11:22:00,
2013-08-13 07:23:00,71.5,71.2,29.88,WNW,287,0.0,0.0,99,0.00,,,0.07,Wunderground v.1.15,2013-08-13 11:23:00,
2013-08-13 07:24:00,71.5,71.2,29.88,WNW,287,0.0,0.0,99,0.00,,,0.07,Wunderground v.1.15,2013-08-13 11:24:00,
2013-08-13 07:28:00,71.6,71.3,29.88,WNW,287,0.0,0.0,99,0.00,,,0.07,Wunderground v.1.15,2013-08-13 11:28:00,
2013-08-13 07:29:00,71.6,71.3,29.88,WNW,287,0.0,1.0,99,0.00,,,0.07,Wunderground v.1.15,2013-08-13 11:29:00,
2013-08-13 07:30:00,71.7,71.4,29.88,WNW,287,1.0,1.0,99,0.00,,,0.07,Wunderground v.1.15,2013-08-13 11:30:00,
2013-08-13 07:33:00,71.8,71.5,29.88,WNW,287,0.0,1.0,99,0.00,,,0.07,Wunderground v.1.15,2013-08-13 11:33:00,
2013-08-13 07:34:00,71.9,71.6,29.88,WNW,287,0.0,1.0,99,0.00,,,0.07,Wunderground v.1.15,2013-08-13 11:34:00,
2013-08-13 07:35:00,72.0,71.7,29.88,WNW,287,0.0,2.0,99,0.00,,,0.07,Wunderground v.1.15,2013-08-13 11:35:00,
2013-08-13 07:38:00,72.1,71.8,29.88,WNW,287,0.0,2.0,99,0.00,,,0.07,Wunderground v.1.15,2013-08-13 11:38:00,
2013-08-13 07:39:00,72.1,71.8,29.89,WNW,287,0.0,2.0,99,0.00,,,0.07,Wunderground v.1.15,2013-08-13 11:39:00,
2013-08-13 07:42:00,72.1,71.8,29.89,WNW,287,0.0,2.0,99,0.00,,,0.07,Wunderground v.1.15,2013-08-13 11:42:00,
2013-08-13 07:44:00,72.2,71.9,29.89,WNW,287,0.0,2.0,99,0.00,,,0.07,Wunderground v.1.15,2013-08-13 11:44:00,
2013-08-13 07:47:00,72.2,71.9,29.89,WNW,287,1.0,2.0,99,0.00,,,0.08,Wunderground v.1.15,2013-08-13 11:47:00,
2013-08-13 07:49:00,72.2,71.9,29.89,WNW,287,2.0,2.0,99,0.23,,,0.09,Wunderground v.1.15,2013-08-13 11:49:00,
2013-08-13 07:50:00,72.2,71.9,29.89,WNW,287,8.0,8.0,99,0.23,,,0.09,Wunderground v.1.15,2013-08-13 11:50:00,
2013-08-13 07:52:00,72.3,72.0,29.88,WNW,287,0.0,8.0,99,0.94,,,0.12,Wunderground v.1.15,2013-08-13 11:52:00,
2013-08-13 07:54:00,72.3,72.0,29.89,WNW,287,0.0,8.0,99,0.56,,,0.13,Wunderground v.1.15,2013-08-13 11:54:00,
2013-08-13 07:55:00,72.3,72.0,29.89,WNW,287,0.0,8.0,99,0.55,,,0.13,Wunderground v.1.15,2013-08-13 11:55:00,
2013-08-13 07:58:00,72.3,72.0,29.89,WNW,287,1.0,8.0,99,0.14,,,0.13,Wunderground v.1.15,2013-08-13 11:58:00,
2013-08-13 07:59:00,72.3,72.0,29.89,WNW,287,6.0,8.0,99,0.11,,,0.13,Wunderground v.1.15,2013-08-13 11:59:00,
2013-08-13 08:00:00,72.3,72.0,29.89,WNW,287,5.0,5.0,99,0.09,,,0.13,Wunderground v.1.15,2013-08-13 12:00:00,
2013-08-13 08:03:00,72.3,72.0,29.89,WNW,287,0.0,6.0,99,0.09,,,0.14,Wunderground v.1.15,2013-08-13 12:03:00,
2013-08-13 08:04:00,72.3,72.0,29.89,WNW,287,2.0,6.0,99,0.09,,,0.14,Wunderground v.1.15,2013-08-13 12:04:00,
2013-08-13 08:05:00,72.3,72.0,29.89,WNW,287,1.0,6.0,99,0.09,,,0.14,Wunderground v.1.15,2013-08-13 12:05:00,
2013-08-13 08:07:00,72.3,72.0,29.89,WNW,287,5.0,6.0,99,0.08,,,0.14,Wunderground v.1.15,2013-08-13 12:07:00,
2013-08-13 08:09:00,72.3,72.0,29.89,WNW,287,5.0,6.0,99,0.07,,,0.14,Wunderground v.1.15,2013-08-13 12:09:00,
2013-08-13 08:10:00,72.3,72.0,29.89,WNW,287,4.0,4.0,99,0.06,,,0.14,Wunderground v.1.15,2013-08-13 12:10:00,
2013-08-13 08:11:00,72.3,72.0,29.89,WNW,287,1.0,7.0,99,0.05,,,0.14,Wunderground v.1.15,2013-08-13 12:11:00,
2013-08-13 08:12:00,72.3,72.0,29.89,WNW,287,0.0,7.0,99,0.05,,,0.14,Wunderground v.1.15,2013-08-13 12:12:00,
2013-08-13 08:14:00,72.4,72.1,29.89,WNW,287,0.0,7.0,99,0.04,,,0.14,Wunderground v.1.15,2013-08-13 12:14:00,
2013-08-13 08:15:00,72.4,72.1,29.89,WNW,287,1.0,7.0,99,0.04,,,0.14,Wunderground v.1.15,2013-08-13 12:15:00,
2013-08-13 08:16:00,72.4,72.1,29.89,WNW,287,1.0,7.0,99,0.04,,,0.14,Wunderground v.1.15,2013-08-13 12:16:00,
2013-08-13 08:18:00,72.4,72.1,29.89,WNW,287,0.0,7.0,99,0.00,,,0.14,Wunderground v.1.15,2013-08-13 12:18:00,
2013-08-13 08:19:00,72.4,72.1,29.89,WNW,287,3.0,7.0,99,0.00,,,0.14,Wunderground v.1.15,2013-08-13 12:19:00,
2013-08-13 08:21:00,72.4,72.1,29.89,WNW,287,5.0,5.0,99,0.00,,,0.14,Wunderground v.1.15,2013-08-13 12:21:00,
2013-08-13 08:23:00,72.4,72.1,29.89,WNW,287,1.0,5.0,99,0.00,,,0.14,Wunderground v.1.15,2013-08-13 12:23:00,
2013-08-13 08:24:00,72.4,72.1,29.89,WNW,287,0.0,5.0,99,0.00,,,0.14,Wunderground v.1.15,2013-08-13 12:24:00,
2013-08-13 08:26:00,72.4,72.1,29.89,WNW,287,1.0,5.0,99,0.00,,,0.14,Wunderground v.1.15,2013-08-13 12:26:00,
2013-08-13 08:29:00,72.4,72.1,29.89,WNW,287,0.0,5.0,99,0.00,,,0.14,Wunderground v.1.15,2013-08-13 12:29:00,
2013-08-13 08:30:00,72.4,72.1,29.89,WNW,287,0.0,1.0,99,0.00,,,0.14,Wunderground v.1.15,2013-08-13 12:30:00,
2013-08-13 08:31:00,72.4,72.1,29.90,WNW,287,0.0,1.0,99,0.00,,,0.14,Wunderground v.1.15,2013-08-13 12:31:00,
2013-08-13 08:34:00,72.4,72.1,29.90,WNW,287,1.0,2.0,99,0.00,,,0.14,Wunderground v.1.15,2013-08-13 12:34:00,
2013-08-13 08:36:00,72.4,72.1,29.90,WNW,287,0.0,2.0,99,0.00,,,0.14,Wunderground v.1.15,2013-08-13 12:36:00,
2013-08-13 08:37:00,72.4,72.1,29.90,WNW,287,0.0,2.0,99,0.00,,,0.14,Wunderground v.1.15,2013-08-13 12:37:00,
2013-08-13 08:39:00,72.4,72.1,29.90,WNW,287,0.0,2.0,99,0.00,,,0.14,Wunderground v.1.15,2013-08-13 12:39:00,
2013-08-13 08:41:00,72.4,72.1,29.90,WNW,287,0.0,0.0,99,0.00,,,0.14,Wunderground v.1.15,2013-08-13 12:41:00,
2013-08-13 08:42:00,72.4,72.1,29.90,WNW,287,0.0,0.0,99,0.00,,,0.14,Wunderground v.1.15,2013-08-13 12:42:00,
2013-08-13 08:43:00,72.4,72.1,29.90,WNW,287,0.0,0.0,99,0.00,,,0.14,Wunderground v.1.15,2013-08-13 12:43:00,
2013-08-13 08:44:00,72.4,72.1,29.90,WNW,287,0.0,0.0,99,0.00,,,0.14,Wunderground v.1.15,2013-08-13 12:44:00,
2013-08-13 08:46:00,72.5,72.2,29.90,WNW,287,0.0,1.0,99,0.00,,,0.14,Wunderground v.1.15,2013-08-13 12:46:00,
2013-08-13 08:47:00,72.5,72.2,29.90,WNW,287,0.0,1.0,99,0.00,,,0.14,Wunderground v.1.15,2013-08-13 12:47:00,
2013-08-13 08:49:00,72.5,72.2,29.90,WNW,287,0.0,1.0,99,0.00,,,0.14,Wunderground v.1.15,2013-08-13 12:49:00,
2013-08-13 08:51:00,72.5,72.2,29.90,WNW,287,0.0,0.0,99,0.00,,,0.14,Wunderground v.1.15,2013-08-13 12:51:00,
2013-08-13 08:52:00,72.5,72.2,29.90,WNW,287,0.0,0.0,99,0.00,,,0.14,Wunderground v.1.15,2013-08-13 12:52:00,
2013-08-13 08:53:00,72.5,72.2,29.90,WNW,287,0.0,0.0,99,0.00,,,0.14,Wunderground v.1.15,2013-08-13 12:53:00,
2013-08-13 08:54:00,72.5,72.2,29.90,WNW,287,0.0,0.0,99,0.00,,,0.14,Wunderground v.1.15,2013-08-13 12:54:00,
2013-08-13 08:55:00,72.5,72.2,29.90,WNW,287,0.0,0.0,99,0.00,,,0.14,Wunderground v.1.15,2013-08-13 12:55:00,
2013-08-13 08:57:00,72.6,72.3,29.90,WNW,287,0.0,0.0,99,0.00,,,0.14,Wunderground v.1.15,2013-08-13 12:57:00,
2013-08-13 08:59:00,72.6,72.3,29.90,WNW,287,0.0,0.0,99,0.00,,,0.14,Wunderground v.1.15,2013-08-13 12:59:00,
2013-08-13 09:02:00,72.7,72.4,29.90,WNW,287,0.0,0.0,99,0.00,,,0.14,Wunderground v.1.15,2013-08-13 13:02:00,
2013-08-13 09:04:00,72.8,72.5,29.90,WNW,287,0.0,1.0,99,0.00,,,0.14,Wunderground v.1.15,2013-08-13 13:04:00,
2013-08-13 09:05:00,72.8,72.5,29.90,WNW,287,1.0,1.0,99,0.00,,,0.14,Wunderground v.1.15,2013-08-13 13:05:00,
2013-08-13 09:07:00,72.9,72.6,29.90,WNW,287,0.0,1.0,99,0.00,,,0.14,Wunderground v.1.15,2013-08-13 13:07:00,
2013-08-13 09:09:00,72.9,72.6,29.90,WNW,287,0.0,1.0,99,0.00,,,0.14,Wunderground v.1.15,2013-08-13 13:09:00,
2013-08-13 09:10:00,73.0,72.7,29.89,WNW,287,0.0,0.0,99,0.00,,,0.14,Wunderground v.1.15,2013-08-13 13:10:00,
2013-08-13 09:12:00,73.0,72.7,29.90,WNW,287,0.0,0.0,99,0.00,,,0.14,Wunderground v.1.15,2013-08-13 13:12:00,
2013-08-13 09:14:00,73.1,72.8,29.90,WNW,287,0.0,0.0,99,0.00,,,0.14,Wunderground v.1.15,2013-08-13 13:14:00,
2013-08-13 09:15:00,73.2,72.9,29.90,WNW,287,0.0,0.0,99,0.00,,,0.14,Wunderground v.1.15,2013-08-13 13:15:00,
2013-08-13 09:17:00,73.2,72.9,29.90,WNW,287,0.0,0.0,99,0.00,,,0.14,Wunderground v.1.15,2013-08-13 13:17:00,
2013-08-13 09:19:00,73.3,73.0,29.90,WNW,287,0.0,0.0,99,0.00,,,0.14,Wunderground v.1.15,2013-08-13 13:19:00,
2013-08-13 09:20:00,73.3,73.0,29.90,WNW,287,0.0,0.0,99,0.00,,,0.14,Wunderground v.1.15,2013-08-13 13:20:00,
2013-08-13 09:21:00,73.3,73.0,29.90,WNW,287,1.0,2.0,99,0.00,,,0.14,Wunderground v.1.15,2013-08-13 13:21:00,
2013-08-13 09:23:00,73.3,73.0,29.90,WNW,287,0.0,2.0,99,0.00,,,0.14,Wunderground v.1.15,2013-08-13 13:23:00,
2013-08-13 09:25:00,73.3,73.0,29.90,WNW,287,0.0,2.0,99,0.00,,,0.14,Wunderground v.1.15,2013-08-13 13:25:00,
2013-08-13 09:26:00,73.3,73.0,29.90,WNW,287,2.0,3.0,99,0.00,,,0.14,Wunderground v.1.15,2013-08-13 13:26:00,
2013-08-13 09:28:00,73.3,73.0,29.90,WNW,287,1.0,3.0,99,0.00,,,0.14,Wunderground v.1.15,2013-08-13 13:28:00,
2013-08-13 09:30:00,73.3,73.0,29.91,WNW,287,2.0,2.0,99,0.00,,,0.14,Wunderground v.1.15,2013-08-13 13:30:00,
2013-08-13 09:31:00,73.3,73.0,29.90,WNW,287,0.0,2.0,99,0.00,,,0.14,Wunderground v.1.15,2013-08-13 13:31:00,
2013-08-13 09:33:00,73.3,73.0,29.91,WNW,287,2.0,2.0,99,0.00,,,0.14,Wunderground v.1.15,2013-08-13 13:33:00,
2013-08-13 09:35:00,73.3,73.0,29.91,WNW,287,4.0,4.0,99,0.00,,,0.14,Wunderground v.1.15,2013-08-13 13:35:00,
2013-08-13 09:36:00,73.2,72.9,29.91,WNW,287,2.0,4.0,99,0.00,,,0.14,Wunderground v.1.15,2013-08-13 13:36:00,
2013-08-13 09:37:00,73.2,72.9,29.91,WNW,287,2.0,4.0,99,0.00,,,0.14,Wunderground v.1.15,2013-08-13 13:37:00,
2013-08-13 09:38:00,73.1,72.8,29.91,WNW,287,1.0,5.0,99,0.00,,,0.14,Wunderground v.1.15,2013-08-13 13:38:00,
2013-08-13 09:41:00,73.1,72.8,29.91,WNW,287,3.0,3.0,99,0.00,,,0.14,Wunderground v.1.15,2013-08-13 13:41:00,
2013-08-13 09:42:00,73.2,72.9,29.91,WNW,287,2.0,3.0,99,0.00,,,0.14,Wunderground v.1.15,2013-08-13 13:42:00,
2013-08-13 09:43:00,73.2,72.9,29.90,WNW,287,1.0,4.0,99,0.00,,,0.14,Wunderground v.1.15,2013-08-13 13:43:00,
2013-08-13 09:46:00,73.1,72.8,29.91,WNW,287,0.0,4.0,99,0.00,,,0.14,Wunderground v.1.15,2013-08-13 13:46:00,
2013-08-13 09:47:00,73.2,72.9,29.91,WNW,287,2.0,4.0,99,0.00,,,0.14,Wunderground v.1.15,2013-08-13 13:47:00,
2013-08-13 09:49:00,73.2,72.9,29.91,WNW,287,1.0,4.0,99,0.00,,,0.14,Wunderground v.1.15,2013-08-13 13:49:00,
2013-08-13 09:51:00,73.3,73.0,29.91,WNW,287,0.0,2.0,99,0.00,,,0.14,Wunderground v.1.15,2013-08-13 13:51:00,
2013-08-13 09:52:00,73.3,73.0,29.91,WNW,287,1.0,2.0,99,0.00,,,0.14,Wunderground v.1.15,2013-08-13 13:52:00,
2013-08-13 09:53:00,73.3,73.0,29.91,WNW,287,1.0,2.0,99,0.00,,,0.14,Wunderground v.1.15,2013-08-13 13:53:00,
2013-08-13 09:54:00,73.3,73.0,29.91,WNW,287,0.0,2.0,99,0.00,,,0.14,Wunderground v.1.15,2013-08-13 13:54:00,
2013-08-13 09:56:00,73.4,73.1,29.91,WNW,287,0.0,2.0,99,0.00,,,0.14,Wunderground v.1.15,2013-08-13 13:56:00,
2013-08-13 09:57:00,73.4,73.1,29.91,WNW,287,1.0,2.0,99,0.00,,,0.14,Wunderground v.1.15,2013-08-13 13:57:00,
2013-08-13 09:58:00,73.5,73.2,29.90,WNW,287,0.0,2.0,99,0.00,,,0.14,Wunderground v.1.15,2013-08-13 13:58:00,
2013-08-13 09:59:00,73.6,73.3,29.90,WNW,287,0.0,2.0,99,0.00,,,0.14,Wunderground v.1.15,2013-08-13 13:59:00,
2013-08-13 10:02:00,73.7,73.4,29.90,WNW,287,0.0,1.0,99,0.00,,,0.14,Wunderground v.1.15,2013-08-13 14:02:00,
2013-08-13 10:03:00,73.8,73.5,29.90,WNW,287,1.0,1.0,99,0.00,,,0.14,Wunderground v.1.15,2013-08-13 14:03:00,
2013-08-13 10:04:00,73.9,73.6,29.90,WNW,287,0.0,2.0,99,0.00,,,0.14,Wunderground v.1.15,2013-08-13 14:04:00,
2013-08-13 10:07:00,74.2,73.9,29.90,WNW,287,0.0,3.0,99,0.00,,,0.14,Wunderground v.1.15,2013-08-13 14:07:00,
2013-08-13 10:08:00,74.3,74.0,29.90,WNW,287,2.0,3.0,99,0.00,,,0.14,Wunderground v.1.15,2013-08-13 14:08:00,
2013-08-13 10:09:00,74.4,74.1,29.91,WNW,287,0.0,1.0,99,0.00,,,0.14,Wunderground v.1.15,2013-08-13 14:09:00,
2013-08-13 10:10:00,74.4,74.1,29.91,WNW,287,0.0,1.0,99,0.00,,,0.14,Wunderground v.1.15,2013-08-13 14:10:00,
2013-08-13 10:12:00,74.4,74.1,29.90,WNW,287,1.0,3.0,99,0.00,,,0.14,Wunderground v.1.15,2013-08-13 14:12:00,
2013-08-13 10:14:00,74.4,74.1,29.90,WNW,287,1.0,4.0,99,0.00,,,0.14,Wunderground v.1.15,2013-08-13 14:14:00,
2013-08-13 10:15:00,74.5,74.2,29.90,WNW,287,3.0,4.0,99,0.00,,,0.14,Wunderground v.1.15,2013-08-13 14:15:00,
2013-08-13 10:17:00,74.4,74.1,29.90,WNW,287,0.0,7.0,99,0.00,,,0.14,Wunderground v.1.15,2013-08-13 14:17:00,
2013-08-13 10:19:00,74.6,74.3,29.90,WNW,287,0.0,7.0,99,0.00,,,0.14,Wunderground v.1.15,2013-08-13 14:19:00,
2013-08-13 10:20:00,74.7,74.4,29.90,WNW,287,6.0,9.0,99,0.00,,,0.14,Wunderground v.1.15,2013-08-13 14:20:00,
2013-08-13 10:22:00,74.3,74.0,29.90,WNW,287,4.0,9.0,99,0.00,,,0.14,Wunderground v.1.15,2013-08-13 14:22:00,
2013-08-13 10:24:00,74.2,73.9,29.90,WNW,287,0.0,9.0,99,0.00,,,0.14,Wunderground v.1.15,2013-08-13 14:24:00,
2013-08-13 10:26:00,74.2,73.9,29.90,WNW,287,2.0,9.0,99,0.00,,,0.14,Wunderground v.1.15,2013-08-13 14:26:00,
2013-08-13 10:28:00,74.2,73.6,29.90,WNW,287,1.0,9.0,98,0.00,,,0.14,Wunderground v.1.15,2013-08-13 14:28:00,
2013-08-13 10:29:00,74.2,73.6,29.90,WNW,287,4.0,9.0,98,0.00,,,0.14,Wunderground v.1.15,2013-08-13 14:29:00,
2013-08-13 10:31:00,74.2,73.6,29.91,WNW,286,3.0,10.0,98,0.00,,,0.14,Wunderground v.1.15,2013-08-13 14:31:00,
2013-08-13 10:33:00,74.3,73.7,29.91,WNW,286,3.0,10.0,98,0.00,,,0.14,Wunderground v.1.15,2013-08-13 14:33:00,
2013-08-13 10:35:00,74.4,73.8,29.91,WNW,286,3.0,10.0,98,0.00,,,0.14,Wunderground v.1.15,2013-08-13 14:35:00,
2013-08-13 10:36:00,74.5,73.9,29.91,WNW,284,4.0,10.0,98,0.00,,,0.14,Wunderground v.1.15,2013-08-13 14:36:00,
2013-08-13 10:37:00,74.4,73.5,29.91,WNW,284,2.0,10.0,97,0.00,,,0.14,Wunderground v.1.15,2013-08-13 14:37:00,
2013-08-13 10:39:00,74.7,73.8,29.91,WNW,284,2.0,10.0,97,0.00,,,0.14,Wunderground v.1.15,2013-08-13 14:39:00,
2013-08-13 10:41:00,75.1,74.5,29.91,WNW,284,2.0,3.0,98,0.00,,,0.14,Wunderground v.1.15,2013-08-13 14:41:00,
2013-08-13 10:42:00,75.2,74.3,29.91,WNW,284,6.0,9.0,97,0.00,,,0.14,Wunderground v.1.15,2013-08-13 14:42:00,
2013-08-13 10:44:00,75.1,73.9,29.91,WNW,284,1.0,9.0,96,0.00,,,0.14,Wunderground v.1.15,2013-08-13 14:44:00,
2013-08-13 10:46:00,75.2,74.0,29.91,WNW,284,2.0,9.0,96,0.00,,,0.14,Wunderground v.1.15,2013-08-13 14:46:00,
2013-08-13 10:47:00,75.3,74.1,29.92,WNW,284,0.0,9.0,96,0.00,,,0.14,Wunderground v.1.15,2013-08-13 14:47:00,
2013-08-13 10:49:00,75.3,74.1,29.92,WNW,284,2.0,9.0,96,0.00,,,0.14,Wunderground v.1.15,2013-08-13 14:49:00,
2013-08-13 10:51:00,75.4,74.2,29.91,WNW,284,1.0,3.0,96,0.00,,,0.14,Wunderground v.1.15,2013-08-13 14:51:00,
2013-08-13 10:52:00,75.4,74.2,29.91,WNW,284,1.0,3.0,96,0.00,,,0.14,Wunderground v.1.15,2013-08-13 14:52:00,
2013-08-13 10:53:00,75.5,74.0,29.91,WNW,284,4.0,7.0,95,0.00,,,0.14,Wunderground v.1.15,2013-08-13 14:53:00,
2013-08-13 10:54:00,75.5,73.7,29.92,WNW,284,2.0,7.0,94,0.00,,,0.14,Wunderground v.1.15,2013-08-13 14:54:00,
2013-08-13 10:56:00,75.5,73.7,29.92,WNW,284,1.0,7.0,94,0.00,,,0.14,Wunderground v.1.15,2013-08-13 14:56:00,
2013-08-13 10:57:00,75.6,74.1,29.92,WNW,284,2.0,7.0,95,0.00,,,0.14,Wunderground v.1.15,2013-08-13 14:57:00,
2013-08-13 10:58:00,75.6,74.1,29.92,WNW,284,1.0,7.0,95,0.00,,,0.14,Wunderground v.1.15,2013-08-13 14:58:00,
2013-08-13 10:59:00,75.7,74.2,29.92,WNW,284,3.0,7.0,95,0.00,,,0.14,Wunderground v.1.15,2013-08-13 14:59:00,
2013-08-13 11:00:00,75.7,74.2,29.92,WNW,284,2.0,3.0,95,0.00,,,0.14,Wunderground v.1.15,2013-08-13 15:00:00,
2013-08-13 11:02:00,75.7,73.8,29.92,WNW,284,0.0,3.0,94,0.00,,,0.14,Wunderground v.1.15,2013-08-13 15:02:00,
2013-08-13 11:03:00,75.6,73.8,29.92,WNW,284,3.0,4.0,94,0.00,,,0.14,Wunderground v.1.15,2013-08-13 15:03:00,
2013-08-13 11:04:00,75.6,73.8,29.91,WNW,284,6.0,7.0,94,0.00,,,0.14,Wunderground v.1.15,2013-08-13 15:04:00,
2013-08-13 11:05:00,75.5,73.3,29.92,WNW,284,5.0,7.0,93,0.00,,,0.14,Wunderground v.1.15,2013-08-13 15:05:00,
2013-08-13 11:07:00,75.4,73.2,29.91,WNW,284,1.0,7.0,93,0.00,,,0.14,Wunderground v.1.15,2013-08-13 15:07:00,
2013-08-13 11:08:00,75.4,73.2,29.91,WNW,284,5.0,7.0,93,0.00,,,0.14,Wunderground v.1.15,2013-08-13 15:08:00,
2013-08-13 11:10:00,75.4,72.9,29.91,West,271,1.0,3.0,92,0.00,,,0.14,Wunderground v.1.15,2013-08-13 15:10:00,
2013-08-13 11:12:00,75.6,73.8,29.91,West,271,3.0,4.0,94,0.00,,,0.14,Wunderground v.1.15,2013-08-13 15:12:00,
2013-08-13 11:13:00,75.6,73.8,29.91,West,271,2.0,4.0,94,0.00,,,0.14,Wunderground v.1.15,2013-08-13 15:13:00,
2013-08-13 11:15:00,75.7,73.5,29.91,West,271,2.0,7.0,93,0.00,,,0.14,Wunderground v.1.15,2013-08-13 15:15:00,
2013-08-13 11:16:00,75.7,73.2,29.91,West,271,2.0,7.0,92,0.00,,,0.14,Wunderground v.1.15,2013-08-13 15:16:00,
2013-08-13 11:17:00,75.7,73.5,29.91,West,271,4.0,7.0,93,0.00,,,0.14,Wunderground v.1.15,2013-08-13 15:17:00,
2013-08-13 11:18:00,75.8,73.6,29.91,West,271,3.0,7.0,93,0.00,,,0.14,Wunderground v.1.15,2013-08-13 15:18:00,
2013-08-13 11:20:00,75.8,73.3,29.91,West,271,3.0,4.0,92,0.00,,,0.14,Wunderground v.1.15,2013-08-13 15:20:00,
2013-08-13 11:21:00,75.8,73.3,29.91,West,271,8.0,8.0,92,0.00,,,0.14,Wunderground v.1.15,2013-08-13 15:21:00,
2013-08-13 11:22:00,75.8,73.0,29.91,West,271,3.0,8.0,91,0.00,,,0.14,Wunderground v.1.15,2013-08-13 15:22:00,
2013-08-13 11:23:00,75.8,73.0,29.91,West,271,6.0,8.0,91,0.00,,,0.14,Wunderground v.1.15,2013-08-13 15:23:00,
2013-08-13 11:24:00,75.8,73.0,29.91,West,271,5.0,8.0,91,0.00,,,0.14,Wunderground v.1.15,2013-08-13 15:24:00,
2013-08-13 11:25:00,75.9,73.1,29.90,West,271,3.0,8.0,91,0.00,,,0.14,Wunderground v.1.15,2013-08-13 15:25:00,
2013-08-13 11:27:00,76.0,73.5,29.90,West,271,2.0,8.0,92,0.00,,,0.14,Wunderground v.1.15,2013-08-13 15:27:00,
2013-08-13 11:28:00,76.1,73.6,29.91,West,271,1.0,8.0,92,0.00,,,0.14,Wunderground v.1.15,2013-08-13 15:28:00,
2013-08-13 11:29:00,76.2,74.0,29.91,West,271,1.0,8.0,93,0.00,,,0.14,Wunderground v.1.15,2013-08-13 15:29:00,
2013-08-13 11:31:00,76.3,74.1,29.91,West,271,0.0,4.0,93,0.00,,,0.14,Wunderground v.1.15,2013-08-13 15:31:00,
2013-08-13 11:32:00,76.4,73.6,29.91,West,271,2.0,4.0,91,0.00,,,0.14,Wunderground v.1.15,2013-08-13 15:32:00,
2013-08-13 11:33:00,76.5,73.3,29.91,West,271,2.0,5.0,90,0.00,,,0.14,Wunderground v.1.15,2013-08-13 15:33:00,
2013-08-13 11:34:00,76.5,73.7,29.91,West,271,2.0,5.0,91,0.00,,,0.14,Wunderground v.1.15,2013-08-13 15:34:00,
2013-08-13 11:35:00,76.6,74.1,29.90,West,271,2.0,5.0,92,0.00,,,0.14,Wunderground v.1.15,2013-08-13 15:35:00,
2013-08-13 11:36:00,76.6,74.1,29.91,West,271,2.0,5.0,92,0.00,,,0.14,Wunderground v.1.15,2013-08-13 15:36:00,
2013-08-13 11:37:00,76.6,73.4,29.90,West,271,3.0,5.0,90,0.00,,,0.14,Wunderground v.1.15,2013-08-13 15:37:00,
2013-08-13 11:38:00,76.7,73.9,29.90,West,271,0.0,5.0,91,0.00,,,0.14,Wunderground v.1.15,2013-08-13 15:38:00,
2013-08-13 11:40:00,76.7,73.9,29.90,West,271,3.0,3.0,91,0.00,,,0.14,Wunderground v.1.15,2013-08-13 15:40:00,
2013-08-13 11:41:00,76.7,73.9,29.90,West,271,9.0,9.0,91,0.00,,,0.14,Wunderground v.1.15,2013-08-13 15:41:00,
2013-08-13 11:42:00,76.6,73.1,29.90,West,271,2.0,9.0,89,0.00,,,0.14,Wunderground v.1.15,2013-08-13 15:42:00,
2013-08-13 11:44:00,76.7,73.9,29.90,West,271,2.0,9.0,91,0.00,,,0.14,Wunderground v.1.15,2013-08-13 15:44:00,
2013-08-13 11:45:00,76.7,73.9,29.91,West,271,0.0,9.0,91,0.00,,,0.14,Wunderground v.1.15,2013-08-13 15:45:00,
2013-08-13 11:46:00,76.8,74.3,29.91,West,271,0.0,9.0,92,0.00,,,0.14,Wunderground v.1.15,2013-08-13 15:46:00,
2013-08-13 11:47:00,76.9,74.4,29.91,West,271,6.0,9.0,92,0.00,,,0.14,Wunderground v.1.15,2013-08-13 15:47:00,
2013-08-13 11:49:00,76.9,74.1,29.91,West,271,2.0,9.0,91,0.00,,,0.14,Wunderground v.1.15,2013-08-13 15:49:00,
2013-08-13 11:51:00,76.9,74.4,29.91,West,271,1.0,2.0,92,0.00,,,0.14,Wunderground v.1.15,2013-08-13 15:51:00,
2013-08-13 11:52:00,76.9,73.7,29.91,West,271,3.0,3.0,90,0.00,,,0.14,Wunderground v.1.15,2013-08-13 15:52:00,
2013-08-13 11:53:00,76.9,73.7,29.91,West,271,0.0,3.0,90,0.00,,,0.14,Wunderground v.1.15,2013-08-13 15:53:00,
2013-08-13 11:54:00,76.9,73.7,29.91,West,271,1.0,3.0,90,0.00,,,0.14,Wunderground v.1.15,2013-08-13 15:54:00,
2013-08-13 11:55:00,76.9,74.4,29.91,West,271,2.0,3.0,92,0.00,,,0.14,Wunderground v.1.15,2013-08-13 15:55:00,
2013-08-13 11:56:00,76.9,73.7,29.91,West,271,3.0,5.0,90,0.00,,,0.14,Wunderground v.1.15,2013-08-13 15:56:00,
2013-08-13 11:57:00,76.8,73.6,29.91,West,271,3.0,5.0,90,0.00,,,0.14,Wunderground v.1.15,2013-08-13 15:57:00,
2013-08-13 11:58:00,76.8,73.6,29.91,West,271,5.0,5.0,90,0.00,,,0.14,Wunderground v.1.15,2013-08-13 15:58:00,
2013-08-13 11:59:00,76.8,73.6,29.91,West,271,6.0,6.0,90,0.00,,,0.14,Wunderground v.1.15,2013-08-13 15:59:00,
2013-08-13 12:00:00,76.8,73.3,29.90,West,271,2.0,3.0,89,0.00,,,0.14,Wunderground v.1.15,2013-08-13 16:00:00,
2013-08-13 12:01:00,76.8,73.6,29.90,West,271,2.0,6.0,90,0.00,,,0.14,Wunderground v.1.15,2013-08-13 16:01:00,
2013-08-13 12:03:00,76.9,73.4,29.90,West,271,2.0,6.0,89,0.00,,,0.14,Wunderground v.1.15,2013-08-13 16:03:00,
2013-08-13 12:04:00,77.0,73.8,29.90,West,271,6.0,6.0,90,0.00,,,0.14,Wunderground v.1.15,2013-08-13 16:04:00,
2013-08-13 12:05:00,77.1,73.6,29.90,West,271,5.0,7.0,89,0.00,,,0.14,Wunderground v.1.15,2013-08-13 16:05:00,
2013-08-13 12:07:00,77.3,73.8,29.90,West,271,3.0,7.0,89,0.00,,,0.14,Wunderground v.1.15,2013-08-13 16:07:00,
2013-08-13 12:08:00,77.4,73.9,29.90,West,271,4.0,7.0,89,0.00,,,0.14,Wunderground v.1.15,2013-08-13 16:08:00,
2013-08-13 12:09:00,77.5,74.3,29.90,West,271,1.0,7.0,90,0.00,,,0.14,Wunderground v.1.15,2013-08-13 16:09:00,
2013-08-13 12:10:00,77.7,74.9,29.90,West,271,4.0,4.0,91,0.00,,,0.14,Wunderground v.1.15,2013-08-13 16:10:00,
2013-08-13 12:12:00,78.0,74.8,29.90,West,271,2.0,7.0,90,0.00,,,0.14,Wunderground v.1.15,2013-08-13 16:12:00,
2013-08-13 12:13:00,78.2,74.7,29.90,West,271,2.0,7.0,89,0.00,,,0.14,Wunderground v.1.15,2013-08-13 16:13:00,
2013-08-13 12:14:00,78.4,74.5,29.90,West,271,2.0,9.0,88,0.00,,,0.14,Wunderground v.1.15,2013-08-13 16:14:00,
2013-08-13 12:15:00,78.4,73.9,29.90,West,271,4.0,9.0,86,0.00,,,0.14,Wunderground v.1.15,2013-08-13 16:15:00,
2013-08-13 12:17:00,78.7,74.8,29.90,West,271,4.0,9.0,88,0.00,,,0.14,Wunderground v.1.15,2013-08-13 16:17:00,
2013-08-13 12:19:00,79.1,75.6,29.89,West,271,4.0,9.0,89,0.00,,,0.14,Wunderground v.1.15,2013-08-13 16:19:00,
2013-08-13 12:20:00,79.3,75.4,29.89,West,271,3.0,3.0,88,0.00,,,0.14,Wunderground v.1.15,2013-08-13 16:20:00,
2013-08-13 12:21:00,79.3,75.4,29.89,West,271,2.0,3.0,88,0.00,,,0.14,Wunderground v.1.15,2013-08-13 16:21:00,
2013-08-13 12:22:00,79.5,75.3,29.89,West,271,5.0,7.0,87,0.00,,,0.14,Wunderground v.1.15,2013-08-13 16:22:00,
2013-08-13 12:24:00,79.7,75.1,29.90,West,271,2.0,7.0,86,0.00,,,0.14,Wunderground v.1.15,2013-08-13 16:24:00,
2013-08-13 12:25:00,79.8,75.2,29.90,West,271,1.0,7.0,86,0.00,,,0.14,Wunderground v.1.15,2013-08-13 16:25:00,
2013-08-13 12:26:00,79.9,76.0,29.89,West,271,1.0,7.0,88,0.00,,,0.14,Wunderground v.1.15,2013-08-13 16:26:00,
2013-08-13 12:27:00,80.1,76.2,29.89,West,271,5.0,7.0,88,0.00,,,0.14,Wunderground v.1.15,2013-08-13 16:27:00,
2013-08-13 12:29:00,80.1,74.1,29.89,West,271,3.0,3.0,82,0.00,,,0.14,Wunderground v.1.15,2013-08-13 16:29:00,
2013-08-13 12:31:00,80.0,74.4,29.89,West,271,3.0,5.0,83,0.00,,,0.14,Wunderground v.1.15,2013-08-13 16:31:00,
2013-08-13 12:32:00,79.8,74.2,29.89,West,271,5.0,5.0,83,0.00,,,0.14,Wunderground v.1.15,2013-08-13 16:32:00,
2013-08-13 12:35:00,79.4,73.8,29.89,West,271,3.0,5.0,83,0.00,,,0.14,Wunderground v.1.15,2013-08-13 16:35:00,
2013-08-13 12:36:00,79.3,74.0,29.89,West,271,3.0,5.0,84,0.00,,,0.14,Wunderground v.1.15,2013-08-13 16:36:00,
2013-08-13 12:38:00,79.1,73.8,29.89,West,271,1.0,6.0,84,0.00,,,0.14,Wunderground v.1.15,2013-08-13 16:38:00,
2013-08-13 12:40:00,78.8,73.9,29.89,West,271,3.0,5.0,85,0.00,,,0.14,Wunderground v.1.15,2013-08-13 16:40:00,
2013-08-13 12:41:00,78.7,73.8,29.89,West,271,2.0,6.0,85,0.00,,,0.14,Wunderground v.1.15,2013-08-13 16:41:00,
2013-08-13 12:43:00,78.7,73.8,29.89,West,271,3.0,6.0,85,0.00,,,0.14,Wunderground v.1.15,2013-08-13 16:43:00,
2013-08-13 12:45:00,78.7,74.2,29.89,West,271,3.0,6.0,86,0.00,,,0.14,Wunderground v.1.15,2013-08-13 16:45:00,
2013-08-13 12:46:00,78.7,73.8,29.89,West,271,1.0,6.0,85,0.00,,,0.14,Wunderground v.1.15,2013-08-13 16:46:00,
2013-08-13 12:48:00,78.6,74.4,29.89,West,271,1.0,6.0,87,0.00,,,0.14,Wunderground v.1.15,2013-08-13 16:48:00,
2013-08-13 12:51:00,78.4,73.9,29.89,West,271,5.0,5.0,86,0.00,,,0.14,Wunderground v.1.15,2013-08-13 16:51:00,
2013-08-13 12:53:00,78.2,74.0,29.88,West,271,1.0,5.0,87,0.00,,,0.14,Wunderground v.1.15,2013-08-13 16:53:00,
2013-08-13 12:56:00,77.8,73.6,29.88,West,271,3.0,9.0,87,0.00,,,0.14,Wunderground v.1.15,2013-08-13 16:56:00,
2013-08-13 12:57:00,77.8,73.6,29.88,West,271,3.0,9.0,87,0.00,,,0.14,Wunderground v.1.15,2013-08-13 16:57:00,
2013-08-13 12:59:00,77.8,73.6,29.89,West,271,1.0,9.0,87,0.00,,,0.14,Wunderground v.1.15,2013-08-13 16:59:00,
2013-08-13 13:02:00,78.2,74.7,29.89,West,271,0.0,5.0,89,0.00,,,0.14,Wunderground v.1.15,2013-08-13 17:02:00,
2013-08-13 13:04:00,78.7,74.2,29.88,West,271,3.0,5.0,86,0.00,,,0.14,Wunderground v.1.15,2013-08-13 17:04:00,
2013-08-13 13:07:00,79.5,74.6,29.88,West,271,3.0,7.0,85,0.00,,,0.14,Wunderground v.1.15,2013-08-13 17:07:00,
2013-08-13 13:08:00,79.5,74.2,29.88,West,271,1.0,7.0,84,0.00,,,0.14,Wunderground v.1.15,2013-08-13 17:08:00,
2013-08-13 13:13:00,79.8,74.9,29.88,West,271,3.0,5.0,85,0.00,,,0.14,Wunderground v.1.15,2013-08-13 17:13:00,
2013-08-13 13:16:00,79.6,74.7,29.88,West,271,1.0,5.0,85,0.00,,,0.14,Wunderground v.1.15,2013-08-13 17:16:00,
2013-08-13 13:18:00,79.6,74.7,29.88,West,271,2.0,5.0,85,0.00,,,0.14,Wunderground v.1.15,2013-08-13 17:18:00,
2013-08-13 13:19:00,79.6,75.4,29.88,West,271,0.0,5.0,87,0.00,,,0.14,Wunderground v.1.15,2013-08-13 17:19:00,
2013-08-13 13:22:00,79.8,74.9,29.88,West,271,1.0,2.0,85,0.00,,,0.14,Wunderground v.1.15,2013-08-13 17:22:00,
2013-08-13 13:23:00,79.9,75.3,29.88,West,271,3.0,3.0,86,0.00,,,0.14,Wunderground v.1.15,2013-08-13 17:23:00,
2013-08-13 13:24:00,80.0,75.4,29.87,West,271,0.0,6.0,86,0.00,,,0.14,Wunderground v.1.15,2013-08-13 17:24:00,
2013-08-13 13:27:00,80.5,75.9,29.87,West,271,7.0,11.0,86,0.00,,,0.14,Wunderground v.1.15,2013-08-13 17:27:00,
2013-08-13 13:28:00,80.6,75.7,29.87,West,271,6.0,11.0,85,0.00,,,0.14,Wunderground v.1.15,2013-08-13 17:28:00,
2013-08-13 13:29:00,80.7,75.4,29.87,West,271,3.0,11.0,84,0.00,,,0.14,Wunderground v.1.15,2013-08-13 17:29:00,
2013-08-13 13:32:00,80.8,74.8,29.87,West,271,6.0,11.0,82,0.00,,,0.14,Wunderground v.1.15,2013-08-13 17:32:00,
2013-08-13 13:33:00,80.9,75.6,29.87,West,271,2.0,11.0,84,0.00,,,0.14,Wunderground v.1.15,2013-08-13 17:33:00,
2013-08-13 13:34:00,81.0,76.1,29.87,West,271,4.0,11.0,85,0.00,,,0.14,Wunderground v.1.15,2013-08-13 17:34:00,
2013-08-13 13:35:00,81.1,75.4,29.87,West,271,2.0,11.0,83,0.00,,,0.14,Wunderground v.1.15,2013-08-13 17:35:00,
2013-08-13 13:37:00,81.2,75.9,29.87,West,268,4.0,11.0,84,0.00,,,0.14,Wunderground v.1.15,2013-08-13 17:37:00,
2013-08-13 13:38:00,81.1,75.4,29.87,SW,229,4.0,11.0,83,0.00,,,0.14,Wunderground v.1.15,2013-08-13 17:38:00,
2013-08-13 13:40:00,81.0,75.0,29.87,SW,229,1.0,4.0,82,0.00,,,0.14,Wunderground v.1.15,2013-08-13 17:40:00,
2013-08-13 13:41:00,81.0,75.7,29.87,SW,229,0.0,4.0,84,0.00,,,0.14,Wunderground v.1.15,2013-08-13 17:41:00,
2013-08-13 13:43:00,80.8,75.2,29.87,SW,229,0.0,11.0,83,0.00,,,0.14,Wunderground v.1.15,2013-08-13 17:43:00,
2013-08-13 13:45:00,80.8,75.9,29.87,SW,229,1.0,11.0,85,0.00,,,0.14,Wunderground v.1.15,2013-08-13 17:45:00,
2013-08-13 13:46:00,80.8,75.9,29.87,SW,229,3.0,11.0,85,0.00,,,0.14,Wunderground v.1.15,2013-08-13 17:46:00,
2013-08-13 13:48:00,80.7,75.4,29.87,SW,229,10.0,11.0,84,0.00,,,0.14,Wunderground v.1.15,2013-08-13 17:48:00,
2013-08-13 13:51:00,80.6,75.0,29.87,SW,226,2.0,8.0,83,0.00,,,0.14,Wunderground v.1.15,2013-08-13 17:51:00,
2013-08-13 13:54:00,80.9,76.3,29.87,SW,227,1.0,8.0,86,0.00,,,0.14,Wunderground v.1.15,2013-08-13 17:54:00,
2013-08-13 13:56:00,81.2,76.6,29.87,SW,227,2.0,8.0,86,0.00,,,0.14,Wunderground v.1.15,2013-08-13 17:56:00,
2013-08-13 13:57:00,81.3,75.6,29.87,SW,227,0.0,8.0,83,0.00,,,0.14,Wunderground v.1.15,2013-08-13 17:57:00,
2013-08-13 13:59:00,81.5,75.8,29.87,SW,227,2.0,8.0,83,0.00,,,0.14,Wunderground v.1.15,2013-08-13 17:59:00,
2013-08-13 14:00:00,81.5,75.1,29.87,SW,226,1.0,2.0,81,0.00,,,0.14,Wunderground v.1.15,2013-08-13 18:00:00,
2013-08-13 14:01:00,81.5,75.1,29.87,SW,227,0.0,2.0,81,0.00,,,0.14,Wunderground v.1.15,2013-08-13 18:01:00,
2013-08-13 14:02:00,81.5,75.5,29.87,SW,227,0.0,2.0,82,0.00,,,0.14,Wunderground v.1.15,2013-08-13 18:02:00,
2013-08-13 14:05:00,81.6,75.2,29.87,SW,226,0.0,2.0,81,0.00,,,0.14,Wunderground v.1.15,2013-08-13 18:05:00,
2013-08-13 14:06:00,81.5,75.5,29.87,SW,227,2.0,2.0,82,0.00,,,0.14,Wunderground v.1.15,2013-08-13 18:06:00,
2013-08-13 14:07:00,81.5,75.1,29.87,SW,227,0.0,2.0,81,0.00,,,0.14,Wunderground v.1.15,2013-08-13 18:07:00,
2013-08-13 14:10:00,81.5,75.5,29.87,SW,227,0.0,1.0,82,0.00,,,0.14,Wunderground v.1.15,2013-08-13 18:10:00,
2013-08-13 14:11:00,81.4,75.4,29.87,SW,227,0.0,1.0,82,0.00,,,0.14,Wunderground v.1.15,2013-08-13 18:11:00,
2013-08-13 14:12:00,81.5,75.8,29.87,SW,227,0.0,1.0,83,0.00,,,0.14,Wunderground v.1.15,2013-08-13 18:12:00,
2013-08-13 14:13:00,81.5,75.8,29.87,SW,227,0.0,1.0,83,0.00,,,0.14,Wunderground v.1.15,2013-08-13 18:13:00,
2013-08-13 14:15:00,81.4,75.4,29.87,SW,227,1.0,2.0,82,0.00,,,0.14,Wunderground v.1.15,2013-08-13 18:15:00,
2013-08-13 14:17:00,81.3,75.3,29.87,SW,227,1.0,2.0,82,0.00,,,0.14,Wunderground v.1.15,2013-08-13 18:17:00,
2013-08-13 14:18:00,81.2,75.5,29.87,SW,227,0.0,2.0,83,0.00,,,0.14,Wunderground v.1.15,2013-08-13 18:18:00,
2013-08-13 14:20:00,81.0,76.1,29.87,SW,227,1.0,2.0,85,0.00,,,0.14,Wunderground v.1.15,2013-08-13 18:20:00,
2013-08-13 14:21:00,81.0,76.1,29.87,SW,227,0.0,2.0,85,0.00,,,0.14,Wunderground v.1.15,2013-08-13 18:21:00,
2013-08-13 14:22:00,80.9,76.0,29.87,SW,227,1.0,2.0,85,0.00,,,0.14,Wunderground v.1.15,2013-08-13 18:22:00,
2013-08-13 14:23:00,80.9,76.3,29.87,SW,227,0.0,2.0,86,0.00,,,0.14,Wunderground v.1.15,2013-08-13 18:23:00,
2013-08-13 14:26:00,80.8,75.5,29.87,SW,229,6.0,6.0,84,0.00,,,0.14,Wunderground v.1.15,2013-08-13 18:26:00,
2013-08-13 14:27:00,80.7,74.7,29.87,SW,229,0.0,6.0,82,0.00,,,0.14,Wunderground v.1.15,2013-08-13 18:27:00,
2013-08-13 14:28:00,80.8,75.2,29.87,SW,229,2.0,6.0,83,0.00,,,0.14,Wunderground v.1.15,2013-08-13 18:28:00,
2013-08-13 14:31:00,81.1,75.8,29.87,SW,229,1.0,3.0,84,0.00,,,0.14,Wunderground v.1.15,2013-08-13 18:31:00,
2013-08-13 14:32:00,81.2,74.8,29.87,SW,229,0.0,3.0,81,0.00,,,0.14,Wunderground v.1.15,2013-08-13 18:32:00,
2013-08-13 14:33:00,81.3,75.6,29.86,SW,229,2.0,4.0,83,0.00,,,0.14,Wunderground v.1.15,2013-08-13 18:33:00,
2013-08-13 14:36:00,81.5,76.2,29.86,SW,229,3.0,4.0,84,0.00,,,0.14,Wunderground v.1.15,2013-08-13 18:36:00,
2013-08-13 14:37:00,81.6,75.9,29.86,SW,229,1.0,4.0,83,0.00,,,0.14,Wunderground v.1.15,2013-08-13 18:37:00,
2013-08-13 14:39:00,81.7,76.4,29.86,SW,229,0.0,4.0,84,0.00,,,0.14,Wunderground v.1.15,2013-08-13 18:39:00,
2013-08-13 14:41:00,81.8,76.1,29.86,SW,229,1.0,3.0,83,0.00,,,0.14,Wunderground v.1.15,2013-08-13 18:41:00,
2013-08-13 14:42:00,81.8,76.1,29.86,SW,229,0.0,3.0,83,0.00,,,0.14,Wunderground v.1.15,2013-08-13 18:42:00,
2013-08-13 14:45:00,82.0,77.0,29.86,SW,229,0.0,3.0,85,0.00,,,0.14,Wunderground v.1.15,2013-08-13 18:45:00,
2013-08-13 14:46:00,82.1,76.4,29.86,SW,229,0.0,3.0,83,0.00,,,0.14,Wunderground v.1.15,2013-08-13 18:46:00,
2013-08-13 14:47:00,82.1,76.8,29.86,SW,229,1.0,3.0,84,0.00,,,0.14,Wunderground v.1.15,2013-08-13 18:47:00,
2013-08-13 14:50:00,82.4,77.8,29.85,SW,229,0.0,1.0,86,0.00,,,0.14,Wunderground v.1.15,2013-08-13 18:50:00,
2013-08-13 14:51:00,82.5,76.1,29.85,SW,229,0.0,4.0,81,0.00,,,0.14,Wunderground v.1.15,2013-08-13 18:51:00,
2013-08-13 14:52:00,82.7,77.0,29.85,SW,229,3.0,4.0,83,0.00,,,0.14,Wunderground v.1.15,2013-08-13 18:52:00,
2013-08-13 14:55:00,83.1,75.9,29.86,SW,229,4.0,9.0,79,0.00,,,0.14,Wunderground v.1.15,2013-08-13 18:55:00,
2013-08-13 14:56:00,83.2,76.0,29.85,SW,229,4.0,9.0,79,0.00,,,0.14,Wunderground v.1.15,2013-08-13 18:56:00,
2013-08-13 14:58:00,83.4,76.6,29.85,SW,229,1.0,9.0,80,0.00,,,0.14,Wunderground v.1.15,2013-08-13 18:58:00,
2013-08-13 15:00:00,83.5,75.5,29.85,WSW,254,0.0,3.0,77,0.00,,,0.14,Wunderground v.1.15,2013-08-13 19:00:00,
2013-08-13 15:02:00,83.4,75.4,29.85,WSW,254,1.0,3.0,77,0.00,,,0.14,Wunderground v.1.15,2013-08-13 19:02:00,
2013-08-13 15:03:00,83.4,75.0,29.85,WSW,255,0.0,3.0,76,0.00,,,0.14,Wunderground v.1.15,2013-08-13 19:03:00,
2013-08-13 15:04:00,83.4,75.8,29.84,WSW,255,1.0,3.0,78,0.00,,,0.14,Wunderground v.1.15,2013-08-13 19:04:00,
2013-08-13 15:05:00,83.3,75.7,29.84,WSW,255,0.0,3.0,78,0.00,,,0.14,Wunderground v.1.15,2013-08-13 19:05:00,
2013-08-13 15:07:00,83.2,75.6,29.84,WSW,255,0.0,3.0,78,0.00,,,0.14,Wunderground v.1.15,2013-08-13 19:07:00,
2013-08-13 15:08:00,83.1,75.5,29.84,WSW,255,2.0,3.0,78,0.00,,,0.14,Wunderground v.1.15,2013-08-13 19:08:00,
2013-08-13 15:09:00,83.0,74.6,29.84,WSW,255,0.0,3.0,76,0.00,,,0.14,Wunderground v.1.15,2013-08-13 19:09:00,
2013-08-13 15:10:00,82.9,74.9,29.84,WSW,254,0.0,2.0,77,0.00,,,0.14,Wunderground v.1.15,2013-08-13 19:10:00,
2013-08-13 15:12:00,82.9,74.9,29.84,WSW,255,2.0,2.0,77,0.00,,,0.14,Wunderground v.1.15,2013-08-13 19:12:00,
2013-08-13 15:13:00,82.9,75.3,29.84,WSW,255,0.0,2.0,78,0.00,,,0.14,Wunderground v.1.15,2013-08-13 19:13:00,
2013-08-13 15:14:00,82.9,76.1,29.84,WSW,254,1.0,2.0,80,0.00,,,0.14,Wunderground v.1.15,2013-08-13 19:14:00,
2013-08-13 15:15:00,82.8,76.4,29.84,WSW,254,0.0,2.0,81,0.00,,,0.14,Wunderground v.1.15,2013-08-13 19:15:00,
2013-08-13 15:17:00,82.7,74.8,29.84,WSW,254,1.0,3.0,77,0.00,,,0.14,Wunderground v.1.15,2013-08-13 19:17:00,
2013-08-13 15:18:00,82.7,74.8,29.84,WSW,254,0.0,3.0,77,0.00,,,0.14,Wunderground v.1.15,2013-08-13 19:18:00,
2013-08-13 15:19:00,82.7,74.8,29.84,WSW,254,1.0,3.0,77,0.00,,,0.14,Wunderground v.1.15,2013-08-13 19:19:00,
2013-08-13 15:20:00,82.6,75.4,29.84,WSW,255,2.0,2.0,79,0.00,,,0.14,Wunderground v.1.15,2013-08-13 19:20:00,
2013-08-13 15:21:00,82.5,74.2,29.84,WSW,254,1.0,3.0,76,0.00,,,0.14,Wunderground v.1.15,2013-08-13 19:21:00,
2013-08-13 15:23:00,82.5,75.3,29.84,WSW,255,1.0,3.0,79,0.00,,,0.14,Wunderground v.1.15,2013-08-13 19:23:00,
2013-08-13 15:25:00,82.5,76.1,29.84,WSW,255,0.0,3.0,81,0.00,,,0.14,Wunderground v.1.15,2013-08-13 19:25:00,
2013-08-13 15:27:00,82.5,76.4,29.84,WSW,254,0.0,3.0,82,0.00,,,0.14,Wunderground v.1.15,2013-08-13 19:27:00,
2013-08-13 15:28:00,82.5,76.4,29.84,WSW,255,2.0,3.0,82,0.00,,,0.14,Wunderground v.1.15,2013-08-13 19:28:00,
2013-08-13 15:29:00,82.5,74.6,29.84,WSW,254,0.0,3.0,77,0.00,,,0.14,Wunderground v.1.15,2013-08-13 19:29:00,
2013-08-13 15:30:00,82.5,74.6,29.84,WSW,254,0.0,3.0,77,0.00,,,0.14,Wunderground v.1.15,2013-08-13 19:30:00,
2013-08-13 15:31:00,82.4,74.5,29.84,WSW,254,0.0,3.0,77,0.00,,,0.14,Wunderground v.1.15,2013-08-13 19:31:00,
2013-08-13 15:32:00,82.4,75.2,29.84,WSW,255,0.0,3.0,79,0.00,,,0.14,Wunderground v.1.15,2013-08-13 19:32:00,
2013-08-13 15:33:00,82.5,76.1,29.84,WSW,254,0.0,3.0,81,0.00,,,0.14,Wunderground v.1.15,2013-08-13 19:33:00,
2013-08-13 15:34:00,82.5,76.1,29.84,WSW,254,0.0,3.0,81,0.00,,,0.14,Wunderground v.1.15,2013-08-13 19:34:00,
2013-08-13 15:36:00,82.5,75.7,29.84,WSW,255,0.0,3.0,80,0.00,,,0.14,Wunderground v.1.15,2013-08-13 19:36:00,
2013-08-13 15:37:00,82.7,75.5,29.83,WSW,255,1.0,3.0,79,0.00,,,0.14,Wunderground v.1.15,2013-08-13 19:37:00,
2013-08-13 15:38:00,82.9,75.7,29.83,WSW,255,3.0,4.0,79,0.00,,,0.14,Wunderground v.1.15,2013-08-13 19:38:00,
2013-08-13 15:39:00,83.0,75.0,29.83,WSW,255,1.0,4.0,77,0.00,,,0.14,Wunderground v.1.15,2013-08-13 19:39:00,
2013-08-13 15:41:00,83.2,76.0,29.83,WSW,255,2.0,3.0,79,0.00,,,0.14,Wunderground v.1.15,2013-08-13 19:41:00,
2013-08-13 15:43:00,83.6,74.8,29.84,WSW,254,2.0,3.0,75,0.00,,,0.14,Wunderground v.1.15,2013-08-13 19:43:00,
2013-08-13 15:44:00,83.7,74.5,29.83,WSW,254,2.0,3.0,74,0.00,,,0.14,Wunderground v.1.15,2013-08-13 19:44:00,
2013-08-13 15:46:00,83.9,76.3,29.84,WSW,255,2.0,4.0,78,0.00,,,0.14,Wunderground v.1.15,2013-08-13 19:46:00,
2013-08-13 15:47:00,84.0,74.8,29.84,WSW,255,0.0,4.0,74,0.00,,,0.14,Wunderground v.1.15,2013-08-13 19:47:00,
2013-08-13 15:49:00,84.1,74.9,29.84,WSW,255,1.0,4.0,74,0.00,,,0.14,Wunderground v.1.15,2013-08-13 19:49:00,
2013-08-13 15:51:00,84.1,75.3,29.84,WSW,255,0.0,2.0,75,0.00,,,0.14,Wunderground v.1.15,2013-08-13 19:51:00,
2013-08-13 15:52:00,84.2,76.6,29.84,WSW,255,2.0,2.0,78,0.00,,,0.14,Wunderground v.1.15,2013-08-13 19:52:00,
2013-08-13 15:54:00,84.3,76.3,29.84,WSW,254,0.0,2.0,77,0.00,,,0.14,Wunderground v.1.15,2013-08-13 19:54:00,
2013-08-13 15:55:00,84.3,76.3,29.84,WSW,255,1.0,2.0,77,0.00,,,0.14,Wunderground v.1.15,2013-08-13 19:55:00,
2013-08-13 15:56:00,84.2,75.8,29.84,WSW,255,0.0,2.0,76,0.00,,,0.14,Wunderground v.1.15,2013-08-13 19:56:00,
2013-08-13 15:57:00,84.3,74.7,29.84,WSW,254,2.0,2.0,73,0.00,,,0.14,Wunderground v.1.15,2013-08-13 19:57:00,
2013-08-13 15:59:00,84.2,72.9,29.84,WSW,254,3.0,3.0,69,0.00,,,0.14,Wunderground v.1.15,2013-08-13 19:59:00,
2013-08-13 16:00:00,84.2,72.9,29.84,WSW,255,4.0,4.0,69,0.00,,,0.14,Wunderground v.1.15,2013-08-13 20:00:00,
2013-08-13 16:01:00,84.3,74.7,29.83,WSW,255,1.0,5.0,73,0.00,,,0.14,Wunderground v.1.15,2013-08-13 20:01:00,
2013-08-13 16:02:00,84.4,75.6,29.83,WSW,255,0.0,5.0,75,0.00,,,0.14,Wunderground v.1.15,2013-08-13 20:02:00,
2013-08-13 16:05:00,84.8,76.4,29.83,WSW,255,2.0,5.0,76,0.00,,,0.14,Wunderground v.1.15,2013-08-13 20:05:00,
2013-08-13 16:06:00,85.0,76.6,29.83,WSW,255,1.0,5.0,76,0.00,,,0.14,Wunderground v.1.15,2013-08-13 20:06:00,
2013-08-13 16:07:00,85.1,75.5,29.83,WSW,255,0.0,5.0,73,0.00,,,0.14,Wunderground v.1.15,2013-08-13 20:07:00,
2013-08-13 16:08:00,85.2,76.4,29.83,WSW,254,0.0,5.0,75,0.00,,,0.14,Wunderground v.1.15,2013-08-13 20:08:00,
2013-08-13 16:10:00,85.3,74.8,29.83,WSW,255,3.0,3.0,71,0.00,,,0.14,Wunderground v.1.15,2013-08-13 20:10:00,
2013-08-13 16:11:00,85.3,75.2,29.83,WSW,254,0.0,3.0,72,0.00,,,0.14,Wunderground v.1.15,2013-08-13 20:11:00,
2013-08-13 16:12:00,85.2,75.1,29.83,WSW,255,2.0,3.0,72,0.00,,,0.14,Wunderground v.1.15,2013-08-13 20:12:00,
2013-08-13 16:13:00,85.2,75.1,29.82,WSW,254,1.0,3.0,72,0.00,,,0.14,Wunderground v.1.15,2013-08-13 20:13:00,
2013-08-13 16:15:00,85.1,74.2,29.82,WSW,255,2.0,4.0,70,0.00,,,0.14,Wunderground v.1.15,2013-08-13 20:15:00,
2013-08-13 16:16:00,85.1,75.1,29.82,WSW,255,1.0,4.0,72,0.00,,,0.14,Wunderground v.1.15,2013-08-13 20:16:00,
2013-08-13 16:17:00,85.0,75.0,29.83,WSW,255,0.0,4.0,72,0.00,,,0.14,Wunderground v.1.15,2013-08-13 20:17:00,
2013-08-13 16:18:00,85.0,76.2,29.83,WSW,254,1.0,4.0,75,0.00,,,0.14,Wunderground v.1.15,2013-08-13 20:18:00,
2013-08-13 16:20:00,84.9,76.5,29.83,WSW,254,0.0,3.0,76,0.00,,,0.14,Wunderground v.1.15,2013-08-13 20:20:00,
2013-08-13 16:22:00,84.9,75.3,29.83,WSW,255,0.0,3.0,73,0.00,,,0.14,Wunderground v.1.15,2013-08-13 20:22:00,
2013-08-13 16:23:00,84.7,76.3,29.83,WSW,254,0.0,3.0,76,0.00,,,0.14,Wunderground v.1.15,2013-08-13 20:23:00,
2013-08-13 16:25:00,84.5,74.5,29.83,WSW,255,0.0,3.0,72,0.00,,,0.14,Wunderground v.1.15,2013-08-13 20:25:00,
2013-08-13 16:27:00,84.5,74.9,29.83,WSW,255,1.0,3.0,73,0.00,,,0.14,Wunderground v.1.15,2013-08-13 20:27:00,
2013-08-13 16:28:00,84.3,74.7,29.83,WSW,255,0.0,3.0,73,0.00,,,0.14,Wunderground v.1.15,2013-08-13 20:28:00,
2013-08-13 16:29:00,84.3,74.3,29.83,WSW,255,0.0,3.0,72,0.00,,,0.14,Wunderground v.1.15,2013-08-13 20:29:00,
2013-08-13 16:31:00,84.3,75.5,29.82,WSW,255,0.0,1.0,75,0.00,,,0.14,Wunderground v.1.15,2013-08-13 20:31:00,
2013-08-13 16:32:00,84.3,75.1,29.82,WSW,255,1.0,2.0,74,0.00,,,0.14,Wunderground v.1.15,2013-08-13 20:32:00,
2013-08-13 16:33:00,84.3,75.1,29.82,WSW,255,3.0,3.0,74,0.00,,,0.14,Wunderground v.1.15,2013-08-13 20:33:00,
2013-08-13 16:34:00,84.3,75.1,29.82,WSW,255,1.0,3.0,74,0.00,,,0.14,Wunderground v.1.15,2013-08-13 20:34:00,
2013-08-13 16:37:00,84.3,74.3,29.82,WSW,254,0.0,4.0,72,0.00,,,0.14,Wunderground v.1.15,2013-08-13 20:37:00,
2013-08-13 16:38:00,84.4,76.0,29.81,WSW,255,0.0,4.0,76,0.00,,,0.14,Wunderground v.1.15,2013-08-13 20:38:00,
2013-08-13 16:39:00,84.4,76.0,29.81,WSW,255,0.0,4.0,76,0.00,,,0.14,Wunderground v.1.15,2013-08-13 20:39:00,
2013-08-13 16:42:00,84.4,75.6,29.82,WSW,255,0.0,2.0,75,0.00,,,0.14,Wunderground v.1.15,2013-08-13 20:42:00,
2013-08-13 16:43:00,84.4,77.6,29.82,WSW,254,0.0,2.0,80,0.00,,,0.14,Wunderground v.1.15,2013-08-13 20:43:00,
2013-08-13 16:44:00,84.4,77.6,29.82,WSW,255,2.0,2.0,80,0.00,,,0.14,Wunderground v.1.15,2013-08-13 20:44:00,
2013-08-13 16:45:00,84.4,74.4,29.82,WSW,255,3.0,3.0,72,0.00,,,0.14,Wunderground v.1.15,2013-08-13 20:45:00,
2013-08-13 16:47:00,84.4,75.2,29.82,WSW,255,1.0,3.0,74,0.00,,,0.14,Wunderground v.1.15,2013-08-13 20:47:00,
2013-08-13 16:48:00,84.4,75.2,29.82,WSW,255,0.0,3.0,74,0.00,,,0.14,Wunderground v.1.15,2013-08-13 20:48:00,
2013-08-13 16:49:00,84.4,75.2,29.82,WSW,255,0.0,3.0,74,0.00,,,0.14,Wunderground v.1.15,2013-08-13 20:49:00,
2013-08-13 16:50:00,84.3,75.5,29.81,WSW,254,2.0,2.0,75,0.00,,,0.14,Wunderground v.1.15,2013-08-13 20:50:00,
2013-08-13 16:52:00,84.3,75.9,29.82,WSW,254,0.0,2.0,76,0.00,,,0.14,Wunderground v.1.15,2013-08-13 20:52:00,
2013-08-13 16:53:00,84.2,75.0,29.82,WSW,255,0.0,2.0,74,0.00,,,0.14,Wunderground v.1.15,2013-08-13 20:53:00,
2013-08-13 16:54:00,84.1,74.9,29.82,WSW,255,0.0,2.0,74,0.00,,,0.14,Wunderground v.1.15,2013-08-13 20:54:00,
2013-08-13 16:55:00,84.1,75.3,29.82,WSW,254,0.0,2.0,75,0.00,,,0.14,Wunderground v.1.15,2013-08-13 20:55:00,
2013-08-13 16:57:00,83.9,74.3,29.81,WSW,255,1.0,4.0,73,0.00,,,0.14,Wunderground v.1.15,2013-08-13 20:57:00,
2013-08-13 16:59:00,83.8,74.6,29.81,WSW,255,0.0,4.0,74,0.00,,,0.14,Wunderground v.1.15,2013-08-13 20:59:00,
2013-08-13 17:00:00,83.6,74.8,29.81,WSW,254,0.0,2.0,75,0.00,,,0.14,Wunderground v.1.15,2013-08-13 21:00:00,
2013-08-13 17:02:00,83.3,74.9,29.81,WSW,255,0.0,2.0,76,0.00,,,0.14,Wunderground v.1.15,2013-08-13 21:02:00,
2013-08-13 17:04:00,83.2,74.4,29.82,WSW,254,2.0,2.0,75,0.00,,,0.14,Wunderground v.1.15,2013-08-13 21:04:00,
2013-08-13 17:05:00,83.0,74.3,29.82,WSW,254,2.0,3.0,75,0.00,,,0.14,Wunderground v.1.15,2013-08-13 21:05:00,
2013-08-13 17:08:00,82.7,75.5,29.81,WSW,255,1.0,3.0,79,0.00,,,0.14,Wunderground v.1.15,2013-08-13 21:08:00,
2013-08-13 17:09:00,82.7,74.4,29.81,WSW,254,0.0,3.0,76,0.00,,,0.14,Wunderground v.1.15,2013-08-13 21:09:00,
2013-08-13 17:10:00,82.7,75.5,29.81,WSW,255,1.0,1.0,79,0.00,,,0.14,Wunderground v.1.15,2013-08-13 21:10:00,
2013-08-13 17:13:00,82.9,74.9,29.81,WSW,255,0.0,2.0,77,0.00,,,0.14,Wunderground v.1.15,2013-08-13 21:13:00,
2013-08-13 17:14:00,82.9,74.6,29.81,WSW,255,0.0,2.0,76,0.00,,,0.14,Wunderground v.1.15,2013-08-13 21:14:00,
2013-08-13 17:15:00,83.0,74.6,29.81,WSW,255,0.0,2.0,76,0.00,,,0.14,Wunderground v.1.15,2013-08-13 21:15:00,
2013-08-13 17:16:00,83.0,75.4,29.81,WSW,255,2.0,2.0,78,0.00,,,0.14,Wunderground v.1.15,2013-08-13 21:16:00,
2013-08-13 17:18:00,83.0,74.6,29.81,WSW,256,5.0,5.0,76,0.00,,,0.14,Wunderground v.1.15,2013-08-13 21:18:00,
2013-08-13 17:20:00,83.0,75.0,29.81,WSW,257,0.0,1.0,77,0.00,,,0.14,Wunderground v.1.15,2013-08-13 21:20:00,
2013-08-13 17:21:00,83.1,75.1,29.81,WSW,256,1.0,2.0,77,0.00,,,0.14,Wunderground v.1.15,2013-08-13 21:21:00,
2013-08-13 17:23:00,83.1,73.5,29.81,WSW,256,1.0,3.0,73,0.00,,,0.14,Wunderground v.1.15,2013-08-13 21:23:00,
2013-08-13 17:25:00,83.1,73.9,29.81,WSW,256,1.0,3.0,74,0.00,,,0.14,Wunderground v.1.15,2013-08-13 21:25:00,
2013-08-13 17:26:00,83.1,73.1,29.81,WSW,257,1.0,3.0,72,0.00,,,0.14,Wunderground v.1.15,2013-08-13 21:26:00,
2013-08-13 17:28:00,83.0,73.0,29.81,WSW,257,2.0,3.0,72,0.00,,,0.14,Wunderground v.1.15,2013-08-13 21:28:00,
2013-08-13 17:30:00,83.0,73.4,29.81,WSW,256,0.0,1.0,73,0.00,,,0.14,Wunderground v.1.15,2013-08-13 21:30:00,
2013-08-13 17:31:00,83.0,73.9,29.81,WSW,257,0.0,1.0,74,0.00,,,0.14,Wunderground v.1.15,2013-08-13 21:31:00,
2013-08-13 17:32:00,83.0,74.3,29.81,WSW,257,1.0,1.0,75,0.00,,,0.14,Wunderground v.1.15,2013-08-13 21:32:00,
2013-08-13 17:33:00,82.9,74.2,29.81,WSW,257,0.0,1.0,75,0.00,,,0.14,Wunderground v.1.15,2013-08-13 21:33:00,
2013-08-13 17:35:00,82.8,74.1,29.81,WSW,257,0.0,2.0,75,0.00,,,0.14,Wunderground v.1.15,2013-08-13 21:35:00,
2013-08-13 17:36:00,82.7,74.0,29.81,WSW,257,0.0,2.0,75,0.00,,,0.14,Wunderground v.1.15,2013-08-13 21:36:00,
2013-08-13 17:37:00,82.7,74.0,29.81,WSW,257,0.0,2.0,75,0.00,,,0.14,Wunderground v.1.15,2013-08-13 21:37:00,
2013-08-13 17:38:00,82.7,74.8,29.81,WSW,257,0.0,2.0,77,0.00,,,0.14,Wunderground v.1.15,2013-08-13 21:38:00,
2013-08-13 17:41:00,82.8,74.5,29.80,WSW,257,0.0,0.0,76,0.00,,,0.14,Wunderground v.1.15,2013-08-13 21:41:00,
2013-08-13 17:42:00,82.9,73.4,29.81,WSW,257,2.0,3.0,73,0.00,,,0.14,Wunderground v.1.15,2013-08-13 21:42:00,
2013-08-13 17:43:00,83.0,73.9,29.81,WSW,257,2.0,5.0,74,0.00,,,0.14,Wunderground v.1.15,2013-08-13 21:43:00,
2013-08-13 17:44:00,83.1,74.4,29.81,WSW,257,0.0,5.0,75,0.00,,,0.14,Wunderground v.1.15,2013-08-13 21:44:00,
2013-08-13 17:46:00,83.3,72.9,29.81,WSW,257,2.0,5.0,71,0.00,,,0.14,Wunderground v.1.15,2013-08-13 21:46:00,
2013-08-13 17:47:00,83.3,72.9,29.81,WSW,257,2.0,5.0,71,0.00,,,0.14,Wunderground v.1.15,2013-08-13 21:47:00,
2013-08-13 17:48:00,83.4,73.0,29.81,WSW,257,0.0,5.0,71,0.00,,,0.14,Wunderground v.1.15,2013-08-13 21:48:00,
2013-08-13 17:49:00,83.4,73.4,29.81,WSW,257,0.0,5.0,72,0.00,,,0.14,Wunderground v.1.15,2013-08-13 21:49:00,
2013-08-13 17:52:00,83.3,73.3,29.81,WSW,257,1.0,2.0,72,0.00,,,0.14,Wunderground v.1.15,2013-08-13 21:52:00,
2013-08-13 17:53:00,83.2,74.0,29.81,WSW,257,0.0,2.0,74,0.00,,,0.14,Wunderground v.1.15,2013-08-13 21:53:00,
2013-08-13 17:54:00,83.1,73.9,29.81,WSW,256,0.0,2.0,74,0.00,,,0.14,Wunderground v.1.15,2013-08-13 21:54:00,
2013-08-13 17:57:00,82.7,73.2,29.80,WSW,256,0.0,2.0,73,0.00,,,0.14,Wunderground v.1.15,2013-08-13 21:57:00,
2013-08-13 17:58:00,82.4,73.7,29.81,WSW,257,2.0,3.0,75,0.00,,,0.14,Wunderground v.1.15,2013-08-13 21:58:00,
2013-08-13 17:59:00,82.3,72.8,29.81,WSW,257,1.0,3.0,73,0.00,,,0.14,Wunderground v.1.15,2013-08-13 21:59:00,
2013-08-13 18:02:00,81.9,72.8,29.81,WSW,257,0.0,1.0,74,0.00,,,0.14,Wunderground v.1.15,2013-08-13 22:02:00,
2013-08-13 18:03:00,81.7,73.0,29.81,WSW,257,0.0,1.0,75,0.00,,,0.14,Wunderground v.1.15,2013-08-13 22:03:00,
2013-08-13 18:04:00,81.5,72.8,29.81,WSW,256,2.0,2.0,75,0.00,,,0.14,Wunderground v.1.15,2013-08-13 22:04:00,
2013-08-13 18:07:00,81.0,73.9,29.82,WSW,257,0.0,2.0,79,0.00,,,0.14,Wunderground v.1.15,2013-08-13 22:07:00,
2013-08-13 18:08:00,80.9,74.5,29.82,WSW,257,0.0,2.0,81,0.00,,,0.14,Wunderground v.1.15,2013-08-13 22:08:00,
2013-08-13 18:09:00,80.7,74.0,29.81,WSW,257,0.0,2.0,80,0.00,,,0.14,Wunderground v.1.15,2013-08-13 22:09:00,
2013-08-13 18:10:00,80.5,74.1,29.81,WSW,257,0.0,1.0,81,0.00,,,0.14,Wunderground v.1.15,2013-08-13 22:10:00,
2013-08-13 18:12:00,80.1,74.1,29.81,WSW,256,0.0,1.0,82,0.00,,,0.14,Wunderground v.1.15,2013-08-13 22:12:00,
2013-08-13 18:13:00,80.0,73.6,29.81,WSW,257,0.0,1.0,81,0.00,,,0.14,Wunderground v.1.15,2013-08-13 22:13:00,
2013-08-13 18:14:00,79.9,73.9,29.81,WSW,256,0.0,1.0,82,0.00,,,0.14,Wunderground v.1.15,2013-08-13 22:14:00,
2013-08-13 18:15:00,79.8,73.8,29.81,WSW,256,0.0,1.0,82,0.00,,,0.14,Wunderground v.1.15,2013-08-13 22:15:00,
2013-08-13 18:18:00,79.6,73.6,29.81,WSW,257,0.0,1.0,82,0.00,,,0.14,Wunderground v.1.15,2013-08-13 22:18:00,
2013-08-13 18:19:00,79.5,73.5,29.81,WSW,256,0.0,1.0,82,0.00,,,0.14,Wunderground v.1.15,2013-08-13 22:19:00,
2013-08-13 18:21:00,79.4,73.1,29.81,WSW,257,0.0,1.0,81,0.00,,,0.14,Wunderground v.1.15,2013-08-13 22:21:00,
2013-08-13 18:23:00,79.2,73.9,29.81,WSW,257,0.0,1.0,84,0.00,,,0.14,Wunderground v.1.15,2013-08-13 22:23:00,
2013-08-13 18:24:00,79.2,73.9,29.82,WSW,257,0.0,1.0,84,0.00,,,0.14,Wunderground v.1.15,2013-08-13 22:24:00,
2013-08-13 18:25:00,79.2,74.6,29.82,WSW,256,0.0,1.0,86,0.00,,,0.14,Wunderground v.1.15,2013-08-13 22:25:00,
2013-08-13 18:26:00,79.2,74.3,29.81,WSW,257,0.0,1.0,85,0.00,,,0.14,Wunderground v.1.15,2013-08-13 22:26:00,
2013-08-13 18:28:00,79.3,75.1,29.81,WSW,257,0.0,1.0,87,0.00,,,0.14,Wunderground v.1.15,2013-08-13 22:28:00,
2013-08-13 18:29:00,79.3,75.4,29.81,WSW,256,0.0,0.0,88,0.00,,,0.14,Wunderground v.1.15,2013-08-13 22:29:00,
2013-08-13 18:30:00,79.4,75.2,29.81,WSW,256,0.0,0.0,87,0.00,,,0.14,Wunderground v.1.15,2013-08-13 22:30:00,
2013-08-13 18:31:00,79.4,75.2,29.81,WSW,257,0.0,0.0,87,0.00,,,0.14,Wunderground v.1.15,2013-08-13 22:31:00,
2013-08-13 18:33:00,79.6,75.0,29.81,WSW,256,0.0,1.0,86,0.00,,,0.14,Wunderground v.1.15,2013-08-13 22:33:00,
2013-08-13 18:35:00,79.8,74.9,29.81,WSW,257,0.0,1.0,85,0.00,,,0.14,Wunderground v.1.15,2013-08-13 22:35:00,
2013-08-13 18:36:00,79.9,74.6,29.81,WSW,256,0.0,1.0,84,0.00,,,0.14,Wunderground v.1.15,2013-08-13 22:36:00,
2013-08-13 18:39:00,80.3,74.7,29.81,WSW,256,0.0,1.0,83,0.00,,,0.14,Wunderground v.1.15,2013-08-13 22:39:00,
2013-08-13 18:40:00,80.4,74.0,29.81,WSW,257,0.0,0.0,81,0.00,,,0.14,Wunderground v.1.15,2013-08-13 22:40:00,
2013-08-13 18:41:00,80.6,73.9,29.81,WSW,256,0.0,1.0,80,0.00,,,0.14,Wunderground v.1.15,2013-08-13 22:41:00,
2013-08-13 18:44:00,81.0,74.2,29.81,WSW,257,0.0,3.0,80,0.00,,,0.14,Wunderground v.1.15,2013-08-13 22:44:00,
2013-08-13 18:45:00,81.2,73.7,29.81,WSW,257,1.0,3.0,78,0.00,,,0.14,Wunderground v.1.15,2013-08-13 22:45:00,
2013-08-13 18:46:00,81.2,73.3,29.81,WSW,257,0.0,3.0,77,0.00,,,0.14,Wunderground v.1.15,2013-08-13 22:46:00,
2013-08-13 18:49:00,81.5,74.0,29.81,WSW,256,1.0,3.0,78,0.00,,,0.14,Wunderground v.1.15,2013-08-13 22:49:00,
2013-08-13 18:50:00,81.5,72.8,29.81,WSW,256,0.0,1.0,75,0.00,,,0.14,Wunderground v.1.15,2013-08-13 22:50:00,
2013-08-13 18:51:00,81.6,73.3,29.81,WSW,256,0.0,1.0,76,0.00,,,0.14,Wunderground v.1.15,2013-08-13 22:51:00,
2013-08-13 18:52:00,81.7,74.5,29.81,WSW,257,0.0,1.0,79,0.00,,,0.14,Wunderground v.1.15,2013-08-13 22:52:00,
2013-08-13 18:54:00,81.7,73.8,29.82,WSW,256,0.0,1.0,77,0.00,,,0.14,Wunderground v.1.15,2013-08-13 22:54:00,
2013-08-13 18:55:00,81.8,73.9,29.81,WSW,257,0.0,1.0,77,0.00,,,0.14,Wunderground v.1.15,2013-08-13 22:55:00,
2013-08-13 18:56:00,81.8,73.9,29.82,WSW,256,1.0,1.0,77,0.00,,,0.14,Wunderground v.1.15,2013-08-13 22:56:00,
2013-08-13 18:57:00,81.8,73.5,29.82,WSW,257,0.0,1.0,76,0.00,,,0.14,Wunderground v.1.15,2013-08-13 22:57:00,
2013-08-13 18:59:00,81.7,74.2,29.81,WSW,257,0.0,1.0,78,0.00,,,0.14,Wunderground v.1.15,2013-08-13 22:59:00,
2013-08-13 19:04:00,81.3,73.4,29.81,WSW,256,0.0,1.0,77,0.00,,,0.14,Wunderground v.1.15,2013-08-13 23:04:00,
2013-08-13 19:09:00,80.7,74.7,29.81,WSW,256,0.0,1.0,82,0.00,,,0.14,Wunderground v.1.15,2013-08-13 23:09:00,
2013-08-13 19:10:00,80.7,74.7,29.81,WSW,257,0.0,0.0,82,0.00,,,0.14,Wunderground v.1.15,2013-08-13 23:10:00,
2013-08-13 19:14:00,80.3,74.3,29.82,WSW,256,0.0,0.0,82,0.00,,,0.14,Wunderground v.1.15,2013-08-13 23:14:00,
2013-08-13 19:15:00,80.3,74.3,29.82,WSW,257,0.0,0.0,82,0.00,,,0.14,Wunderground v.1.15,2013-08-13 23:15:00,
2013-08-13 19:16:00,80.2,74.6,29.81,WSW,256,0.0,0.0,83,0.00,,,0.14,Wunderground v.1.15,2013-08-13 23:16:00,
2013-08-13 19:19:00,79.8,73.4,29.82,WSW,257,0.0,0.0,81,0.00,,,0.14,Wunderground v.1.15,2013-08-13 23:19:00,
2013-08-13 19:20:00,79.8,73.4,29.82,WSW,257,0.0,0.0,81,0.00,,,0.14,Wunderground v.1.15,2013-08-13 23:20:00,
2013-08-13 19:21:00,79.6,72.9,29.82,WSW,256,0.0,0.0,80,0.00,,,0.14,Wunderground v.1.15,2013-08-13 23:21:00,
2013-08-13 19:25:00,79.2,72.9,29.82,WSW,256,0.0,0.0,81,0.00,,,0.14,Wunderground v.1.15,2013-08-13 23:25:00,
2013-08-13 19:26:00,79.2,73.6,29.82,WSW,256,0.0,0.0,83,0.00,,,0.14,Wunderground v.1.15,2013-08-13 23:26:00,
2013-08-13 19:30:00,79.0,73.4,29.82,WSW,257,0.0,0.0,83,0.00,,,0.14,Wunderground v.1.15,2013-08-13 23:30:00,
2013-08-13 19:31:00,79.0,73.4,29.82,WSW,256,0.0,0.0,83,0.00,,,0.14,Wunderground v.1.15,2013-08-13 23:31:00,
2013-08-13 19:32:00,78.9,72.9,29.82,WSW,257,0.0,0.0,82,0.00,,,0.14,Wunderground v.1.15,2013-08-13 23:32:00,
2013-08-13 19:35:00,78.7,72.7,29.83,WSW,257,0.0,0.0,82,0.00,,,0.14,Wunderground v.1.15,2013-08-13 23:35:00,
2013-08-13 19:36:00,78.7,72.7,29.83,WSW,257,0.0,0.0,82,0.00,,,0.14,Wunderground v.1.15,2013-08-13 23:36:00,
2013-08-13 19:37:00,78.7,73.1,29.83,WSW,257,0.0,0.0,83,0.00,,,0.14,Wunderground v.1.15,2013-08-13 23:37:00,
2013-08-13 19:41:00,78.7,73.5,29.83,WSW,257,0.0,0.0,84,0.00,,,0.14,Wunderground v.1.15,2013-08-13 23:41:00,
2013-08-13 19:42:00,78.6,73.4,29.83,WSW,257,0.0,0.0,84,0.00,,,0.14,Wunderground v.1.15,2013-08-13 23:42:00,
2013-08-13 19:46:00,78.4,72.8,29.83,WSW,256,0.0,1.0,83,0.00,,,0.14,Wunderground v.1.15,2013-08-13 23:46:00,
2013-08-13 19:47:00,78.4,73.2,29.83,WSW,257,0.0,1.0,84,0.00,,,0.14,Wunderground v.1.15,2013-08-13 23:47:00,
2013-08-13 19:51:00,78.1,73.6,29.83,WSW,257,0.0,0.0,86,0.00,,,0.14,Wunderground v.1.15,2013-08-13 23:51:00,
2013-08-13 19:52:00,78.1,73.2,29.83,WSW,256,0.0,0.0,85,0.00,,,0.14,Wunderground v.1.15,2013-08-13 23:52:00,
2013-08-13 19:56:00,77.7,72.8,29.83,WSW,256,0.0,0.0,85,0.00,,,0.14,Wunderground v.1.15,2013-08-13 23:56:00,
2013-08-13 19:57:00,77.7,73.2,29.83,WSW,256,0.0,0.0,86,0.00,,,0.14,Wunderground v.1.15,2013-08-13 23:57:00,
2013-08-13 20:01:00,77.5,73.3,29.83,WSW,256,0.0,0.0,87,0.00,,,0.14,Wunderground v.1.15,2013-08-14 00:01:00,
2013-08-13 20:02:00,77.5,73.0,29.83,WSW,257,0.0,0.0,86,0.00,,,0.14,Wunderground v.1.15,2013-08-14 00:02:00,
2013-08-13 20:07:00,77.3,73.1,29.83,WSW,257,0.0,1.0,87,0.00,,,0.14,Wunderground v.1.15,2013-08-14 00:07:00,
2013-08-13 20:08:00,77.3,73.1,29.83,WSW,257,0.0,1.0,87,0.00,,,0.14,Wunderground v.1.15,2013-08-14 00:08:00,
2013-08-13 20:12:00,77.1,73.3,29.83,WSW,256,0.0,0.0,88,0.00,,,0.14,Wunderground v.1.15,2013-08-14 00:12:00,
2013-08-13 20:13:00,77.1,73.3,29.83,WSW,256,0.0,0.0,88,0.00,,,0.14,Wunderground v.1.15,2013-08-14 00:13:00,
2013-08-13 20:17:00,76.9,73.1,29.83,WSW,256,0.0,0.0,88,0.00,,,0.14,Wunderground v.1.15,2013-08-14 00:17:00,
2013-08-13 20:18:00,76.9,73.1,29.83,WSW,257,0.0,0.0,88,0.00,,,0.14,Wunderground v.1.15,2013-08-14 00:18:00,
2013-08-13 20:19:00,76.8,73.3,29.83,WSW,256,0.0,0.0,89,0.00,,,0.14,Wunderground v.1.15,2013-08-14 00:19:00,
2013-08-13 20:22:00,76.7,73.2,29.83,WSW,256,0.0,0.0,89,0.00,,,0.14,Wunderground v.1.15,2013-08-14 00:22:00,
2013-08-13 20:23:00,76.7,73.2,29.83,WSW,256,0.0,0.0,89,0.00,,,0.14,Wunderground v.1.15,2013-08-14 00:23:00,
2013-08-13 20:25:00,76.6,73.1,29.83,WSW,257,0.0,0.0,89,0.00,,,0.14,Wunderground v.1.15,2013-08-14 00:25:00,
2013-08-13 20:27:00,76.5,73.0,29.83,WSW,257,0.0,0.0,89,0.00,,,0.14,Wunderground v.1.15,2013-08-14 00:27:00,
2013-08-13 20:28:00,76.5,73.0,29.83,WSW,257,0.0,0.0,89,0.00,,,0.14,Wunderground v.1.15,2013-08-14 00:28:00,
2013-08-13 20:31:00,76.3,73.1,29.83,WSW,256,0.0,0.0,90,0.00,,,0.14,Wunderground v.1.15,2013-08-14 00:31:00,
2013-08-13 20:33:00,76.3,73.1,29.83,WSW,257,0.0,0.0,90,0.00,,,0.14,Wunderground v.1.15,2013-08-14 00:33:00,
2013-08-13 20:34:00,76.2,73.1,29.83,WSW,256,0.0,0.0,90,0.00,,,0.14,Wunderground v.1.15,2013-08-14 00:34:00,
2013-08-13 20:36:00,76.1,73.0,29.83,WSW,257,0.0,0.0,90,0.00,,,0.14,Wunderground v.1.15,2013-08-14 00:36:00,
2013-08-13 20:38:00,76.0,72.9,29.83,WSW,256,0.0,1.0,90,0.00,,,0.14,Wunderground v.1.15,2013-08-14 00:38:00,
2013-08-13 20:39:00,76.0,72.9,29.83,WSW,257,0.0,1.0,90,0.00,,,0.14,Wunderground v.1.15,2013-08-14 00:39:00,
2013-08-13 20:41:00,75.8,72.7,29.83,WSW,256,0.0,1.0,90,0.00,,,0.14,Wunderground v.1.15,2013-08-14 00:41:00,
2013-08-13 20:43:00,75.7,72.6,29.83,WSW,256,0.0,1.0,90,0.00,,,0.14,Wunderground v.1.15,2013-08-14 00:43:00,
2013-08-13 20:44:00,75.7,72.9,29.83,WSW,256,0.0,1.0,91,0.00,,,0.14,Wunderground v.1.15,2013-08-14 00:44:00,
2013-08-13 20:46:00,75.5,72.7,29.83,WSW,257,0.0,1.0,91,0.00,,,0.14,Wunderground v.1.15,2013-08-14 00:46:00,
2013-08-13 20:49:00,75.4,72.6,29.83,WSW,257,0.0,1.0,91,0.00,,,0.14,Wunderground v.1.15,2013-08-14 00:49:00,
2013-08-13 20:50:00,75.4,72.6,29.83,WSW,257,0.0,0.0,91,0.00,,,0.14,Wunderground v.1.15,2013-08-14 00:50:00,
2013-08-13 20:51:00,75.3,72.8,29.83,WSW,257,0.0,0.0,92,0.00,,,0.14,Wunderground v.1.15,2013-08-14 00:51:00,
2013-08-13 20:54:00,75.2,72.7,29.83,WSW,256,0.0,0.0,92,0.00,,,0.14,Wunderground v.1.15,2013-08-14 00:54:00,
2013-08-13 20:55:00,75.2,72.7,29.83,WSW,257,0.0,0.0,92,0.00,,,0.14,Wunderground v.1.15,2013-08-14 00:55:00,
2013-08-13 20:58:00,75.1,72.6,29.83,WSW,257,0.0,0.0,92,0.00,,,0.14,Wunderground v.1.15,2013-08-14 00:58:00,
2013-08-13 20:59:00,75.0,72.5,29.83,WSW,257,0.0,0.0,92,0.00,,,0.14,Wunderground v.1.15,2013-08-14 00:59:00,
2013-08-13 21:00:00,75.0,72.8,29.83,WSW,256,0.0,0.0,93,0.00,,,0.14,Wunderground v.1.15,2013-08-14 01:00:00,
2013-08-13 21:03:00,74.9,72.7,29.83,WSW,256,0.0,0.0,93,0.00,,,0.14,Wunderground v.1.15,2013-08-14 01:03:00,
2013-08-13 21:04:00,74.8,72.3,29.83,WSW,257,0.0,0.0,92,0.00,,,0.14,Wunderground v.1.15,2013-08-14 01:04:00,
2013-08-13 21:05:00,74.8,72.3,29.83,WSW,257,0.0,0.0,92,0.00,,,0.14,Wunderground v.1.15,2013-08-14 01:05:00,
2013-08-13 21:08:00,74.6,72.4,29.82,WSW,256,0.0,0.0,93,0.00,,,0.14,Wunderground v.1.15,2013-08-14 01:08:00,
2013-08-13 21:09:00,74.6,72.4,29.83,WSW,257,0.0,0.0,93,0.00,,,0.14,Wunderground v.1.15,2013-08-14 01:09:00,
2013-08-13 21:10:00,74.6,72.4,29.83,WSW,257,0.0,1.0,93,0.00,,,0.14,Wunderground v.1.15,2013-08-14 01:10:00,
2013-08-13 21:13:00,74.4,72.2,29.83,WSW,256,0.0,1.0,93,0.00,,,0.14,Wunderground v.1.15,2013-08-14 01:13:00,
2013-08-13 21:15:00,74.4,72.2,29.83,WSW,257,0.0,1.0,93,0.00,,,0.14,Wunderground v.1.15,2013-08-14 01:15:00,
2013-08-13 21:16:00,74.4,72.2,29.83,WSW,256,0.0,1.0,93,0.00,,,0.14,Wunderground v.1.15,2013-08-14 01:16:00,
2013-08-13 21:18:00,74.2,72.0,29.83,WSW,257,0.0,1.0,93,0.00,,,0.14,Wunderground v.1.15,2013-08-14 01:18:00,
2013-08-13 21:20:00,74.2,72.0,29.83,WSW,257,0.0,0.0,93,0.00,,,0.14,Wunderground v.1.15,2013-08-14 01:20:00,
2013-08-13 21:21:00,74.1,71.9,29.83,WSW,256,0.0,1.0,93,0.00,,,0.14,Wunderground v.1.15,2013-08-14 01:21:00,
2013-08-13 21:24:00,74.0,71.8,29.83,WSW,257,0.0,1.0,93,0.00,,,0.14,Wunderground v.1.15,2013-08-14 01:24:00,
2013-08-13 21:25:00,74.0,71.8,29.83,WSW,256,0.0,1.0,93,0.00,,,0.14,Wunderground v.1.15,2013-08-14 01:25:00,
2013-08-13 21:26:00,73.9,71.7,29.83,WSW,257,0.0,1.0,93,0.00,,,0.14,Wunderground v.1.15,2013-08-14 01:26:00,
2013-08-13 21:27:00,73.9,71.7,29.83,WSW,256,0.0,1.0,93,0.00,,,0.14,Wunderground v.1.15,2013-08-14 01:27:00,
2013-08-13 21:29:00,73.8,71.6,29.83,WSW,256,0.0,1.0,93,0.00,,,0.14,Wunderground v.1.15,2013-08-14 01:29:00,
2013-08-13 21:30:00,73.7,71.5,29.83,WSW,257,0.0,0.0,93,0.00,,,0.14,Wunderground v.1.15,2013-08-14 01:30:00,
2013-08-13 21:31:00,73.7,71.5,29.83,WSW,256,0.0,0.0,93,0.00,,,0.14,Wunderground v.1.15,2013-08-14 01:31:00,
2013-08-13 21:32:00,73.6,71.4,29.83,WSW,257,0.0,0.0,93,0.00,,,0.14,Wunderground v.1.15,2013-08-14 01:32:00,
2013-08-13 21:34:00,73.6,71.4,29.83,WSW,257,1.0,1.0,93,0.00,,,0.14,Wunderground v.1.15,2013-08-14 01:34:00,
2013-08-13 21:35:00,73.5,71.7,29.84,WSW,257,0.0,1.0,94,0.00,,,0.14,Wunderground v.1.15,2013-08-14 01:35:00,
2013-08-13 21:36:00,73.5,71.7,29.83,WSW,257,0.0,1.0,94,0.00,,,0.14,Wunderground v.1.15,2013-08-14 01:36:00,
2013-08-13 21:37:00,73.5,71.7,29.83,WSW,256,0.0,1.0,94,0.00,,,0.14,Wunderground v.1.15,2013-08-14 01:37:00,
2013-08-13 21:39:00,73.4,71.6,29.84,WSW,257,0.0,1.0,94,0.00,,,0.14,Wunderground v.1.15,2013-08-14 01:39:00,
2013-08-13 21:40:00,73.4,71.6,29.84,WSW,257,0.0,0.0,94,0.00,,,0.14,Wunderground v.1.15,2013-08-14 01:40:00,
2013-08-13 21:42:00,73.4,71.6,29.84,WSW,257,0.0,0.0,94,0.00,,,0.14,Wunderground v.1.15,2013-08-14 01:42:00,
2013-08-13 21:44:00,73.4,71.6,29.84,WSW,256,0.0,1.0,94,0.00,,,0.14,Wunderground v.1.15,2013-08-14 01:44:00,
2013-08-13 21:45:00,73.4,71.6,29.85,WSW,257,0.0,1.0,94,0.00,,,0.14,Wunderground v.1.15,2013-08-14 01:45:00,
2013-08-13 21:46:00,73.4,71.6,29.85,WSW,257,0.0,1.0,94,0.00,,,0.14,Wunderground v.1.15,2013-08-14 01:46:00,
2013-08-13 21:47:00,73.4,71.6,29.84,WSW,256,0.0,1.0,94,0.00,,,0.14,Wunderground v.1.15,2013-08-14 01:47:00,
2013-08-13 21:50:00,73.3,71.5,29.84,WSW,257,0.0,0.0,94,0.00,,,0.14,Wunderground v.1.15,2013-08-14 01:50:00,
2013-08-13 21:51:00,73.3,71.5,29.85,WSW,257,0.0,0.0,94,0.00,,,0.14,Wunderground v.1.15,2013-08-14 01:51:00,
2013-08-13 21:52:00,73.2,71.4,29.85,WSW,256,0.0,0.0,94,0.00,,,0.14,Wunderground v.1.15,2013-08-14 01:52:00,
2013-08-13 21:55:00,73.2,71.4,29.85,WSW,257,0.0,0.0,94,0.00,,,0.14,Wunderground v.1.15,2013-08-14 01:55:00,
2013-08-13 21:56:00,73.1,71.3,29.85,WSW,256,0.0,0.0,94,0.00,,,0.14,Wunderground v.1.15,2013-08-14 01:56:00,
2013-08-13 21:57:00,73.1,71.3,29.85,WSW,257,0.0,0.0,94,0.00,,,0.14,Wunderground v.1.15,2013-08-14 01:57:00,
2013-08-13 21:59:00,73.1,71.3,29.85,WSW,256,0.0,0.0,94,0.00,,,0.14,Wunderground v.1.15,2013-08-14 01:59:00,
2013-08-13 22:00:00,73.0,71.5,29.85,WSW,256,0.0,0.0,95,0.00,,,0.14,Wunderground v.1.15,2013-08-14 02:00:00,
2013-08-13 22:01:00,73.0,71.5,29.85,WSW,257,0.0,0.0,95,0.00,,,0.14,Wunderground v.1.15,2013-08-14 02:01:00,
2013-08-13 22:02:00,73.0,71.5,29.85,WSW,257,0.0,0.0,95,0.00,,,0.14,Wunderground v.1.15,2013-08-14 02:02:00,
2013-08-13 22:04:00,73.0,71.5,29.85,WSW,256,0.0,0.0,95,0.00,,,0.14,Wunderground v.1.15,2013-08-14 02:04:00,
2013-08-13 22:06:00,73.0,71.5,29.86,WSW,257,0.0,0.0,95,0.00,,,0.14,Wunderground v.1.15,2013-08-14 02:06:00,
2013-08-13 22:07:00,72.9,71.4,29.86,WSW,257,0.0,0.0,95,0.00,,,0.14,Wunderground v.1.15,2013-08-14 02:07:00,
2013-08-13 22:09:00,72.9,71.4,29.86,WSW,257,0.0,0.0,95,0.00,,,0.14,Wunderground v.1.15,2013-08-14 02:09:00,
2013-08-13 22:10:00,72.9,71.4,29.86,WSW,256,0.0,0.0,95,0.00,,,0.14,Wunderground v.1.15,2013-08-14 02:10:00,
2013-08-13 22:11:00,72.9,71.4,29.86,WSW,256,0.0,0.0,95,0.00,,,0.14,Wunderground v.1.15,2013-08-14 02:11:00,
2013-08-13 22:12:00,72.9,71.4,29.86,WSW,256,0.0,1.0,95,0.00,,,0.14,Wunderground v.1.15,2013-08-14 02:12:00,
2013-08-13 22:14:00,72.9,71.4,29.86,WSW,257,0.0,1.0,95,0.00,,,0.14,Wunderground v.1.15,2013-08-14 02:14:00,
2013-08-13 22:15:00,72.9,71.4,29.86,WSW,256,0.0,1.0,95,0.00,,,0.14,Wunderground v.1.15,2013-08-14 02:15:00,
2013-08-13 22:16:00,72.9,71.4,29.86,WSW,256,0.0,1.0,95,0.00,,,0.14,Wunderground v.1.15,2013-08-14 02:16:00,
2013-08-13 22:17:00,72.9,71.4,29.86,WSW,256,0.0,1.0,95,0.00,,,0.14,Wunderground v.1.15,2013-08-14 02:17:00,
2013-08-13 22:19:00,72.8,71.3,29.86,WSW,256,0.0,1.0,95,0.00,,,0.14,Wunderground v.1.15,2013-08-14 02:19:00,
2013-08-13 22:20:00,72.8,71.3,29.86,WSW,256,0.0,0.0,95,0.00,,,0.14,Wunderground v.1.15,2013-08-14 02:20:00,
2013-08-13 22:21:00,72.8,71.3,29.86,WSW,257,0.0,0.0,95,0.00,,,0.14,Wunderground v.1.15,2013-08-14 02:21:00,
2013-08-13 22:22:00,72.8,71.3,29.86,WSW,256,0.0,0.0,95,0.00,,,0.14,Wunderground v.1.15,2013-08-14 02:22:00,
2013-08-13 22:23:00,72.8,71.3,29.86,WSW,256,0.0,0.0,95,0.00,,,0.14,Wunderground v.1.15,2013-08-14 02:23:00,
2013-08-13 22:25:00,72.7,71.2,29.86,WSW,256,0.0,0.0,95,0.00,,,0.14,Wunderground v.1.15,2013-08-14 02:25:00,
2013-08-13 22:26:00,72.7,71.2,29.86,WSW,257,0.0,0.0,95,0.00,,,0.14,Wunderground v.1.15,2013-08-14 02:26:00,
2013-08-13 22:27:00,72.7,71.2,29.86,WSW,257,0.0,0.0,95,0.00,,,0.14,Wunderground v.1.15,2013-08-14 02:27:00,
2013-08-13 22:28:00,72.7,71.2,29.86,WSW,257,0.0,0.0,95,0.00,,,0.14,Wunderground v.1.15,2013-08-14 02:28:00,
2013-08-13 22:30:00,72.7,71.2,29.86,WSW,257,0.0,0.0,95,0.00,,,0.14,Wunderground v.1.15,2013-08-14 02:30:00,
2013-08-13 22:31:00,72.6,71.1,29.86,WSW,256,0.0,0.0,95,0.00,,,0.14,Wunderground v.1.15,2013-08-14 02:31:00,
2013-08-13 22:32:00,72.6,71.1,29.86,WSW,256,0.0,0.0,95,0.00,,,0.14,Wunderground v.1.15,2013-08-14 02:32:00,
2013-08-13 22:33:00,72.6,71.1,29.86,WSW,257,0.0,0.0,95,0.00,,,0.14,Wunderground v.1.15,2013-08-14 02:33:00,
2013-08-13 22:35:00,72.6,71.1,29.86,WSW,257,0.0,0.0,95,0.00,,,0.14,Wunderground v.1.15,2013-08-14 02:35:00,
2013-08-13 22:37:00,72.5,71.0,29.86,WSW,257,0.0,0.0,95,0.00,,,0.14,Wunderground v.1.15,2013-08-14 02:37:00,
2013-08-13 22:38:00,72.5,71.0,29.86,WSW,256,0.0,0.0,95,0.00,,,0.14,Wunderground v.1.15,2013-08-14 02:38:00,
2013-08-13 22:40:00,72.5,71.0,29.86,WSW,257,0.0,0.0,95,0.00,,,0.14,Wunderground v.1.15,2013-08-14 02:40:00,
2013-08-13 22:41:00,72.5,71.0,29.86,WSW,257,0.0,0.0,95,0.00,,,0.14,Wunderground v.1.15,2013-08-14 02:41:00,
2013-08-13 22:42:00,72.4,70.9,29.86,WSW,256,1.0,1.0,95,0.00,,,0.14,Wunderground v.1.15,2013-08-14 02:42:00,
2013-08-13 22:43:00,72.4,70.9,29.86,WSW,257,0.0,1.0,95,0.00,,,0.14,Wunderground v.1.15,2013-08-14 02:43:00,
2013-08-13 22:46:00,72.3,70.8,29.86,WSW,256,0.0,1.0,95,0.00,,,0.14,Wunderground v.1.15,2013-08-14 02:46:00,
2013-08-13 22:47:00,72.2,70.7,29.86,WSW,257,0.0,1.0,95,0.00,,,0.14,Wunderground v.1.15,2013-08-14 02:47:00,
2013-08-13 22:48:00,72.2,70.7,29.86,WSW,256,0.0,1.0,95,0.00,,,0.14,Wunderground v.1.15,2013-08-14 02:48:00,
2013-08-13 22:49:00,72.2,70.7,29.86,WSW,256,0.0,1.0,95,0.00,,,0.14,Wunderground v.1.15,2013-08-14 02:49:00,
2013-08-13 22:51:00,72.2,70.7,29.86,WSW,256,0.0,0.0,95,0.00,,,0.14,Wunderground v.1.15,2013-08-14 02:51:00,
2013-08-13 22:53:00,72.1,70.6,29.86,WSW,257,0.0,0.0,95,0.00,,,0.14,Wunderground v.1.15,2013-08-14 02:53:00,
2013-08-13 22:54:00,72.1,70.6,29.86,WSW,257,0.0,0.0,95,0.00,,,0.14,Wunderground v.1.15,2013-08-14 02:54:00,
2013-08-13 22:55:00,72.1,70.6,29.86,WSW,257,0.0,0.0,95,0.00,,,0.14,Wunderground v.1.15,2013-08-14 02:55:00,
2013-08-13 22:56:00,72.1,70.6,29.87,WSW,257,0.0,1.0,95,0.00,,,0.14,Wunderground v.1.15,2013-08-14 02:56:00,
2013-08-13 22:58:00,72.0,70.5,29.87,WSW,257,0.0,1.0,95,0.00,,,0.14,Wunderground v.1.15,2013-08-14 02:58:00,
2013-08-13 23:00:00,72.0,70.5,29.87,WSW,256,0.0,1.0,95,0.00,,,0.14,Wunderground v.1.15,2013-08-14 03:00:00,
2013-08-13 23:01:00,72.0,70.5,29.87,WSW,256,0.0,1.0,95,0.00,,,0.14,Wunderground v.1.15,2013-08-14 03:01:00,
2013-08-13 23:04:00,72.0,70.5,29.87,WSW,257,0.0,1.0,95,0.00,,,0.14,Wunderground v.1.15,2013-08-14 03:04:00,
2013-08-13 23:05:00,72.0,70.5,29.87,WSW,257,0.0,1.0,95,0.00,,,0.14,Wunderground v.1.15,2013-08-14 03:05:00,
2013-08-13 23:06:00,71.9,70.7,29.87,WSW,257,0.0,1.0,96,0.00,,,0.14,Wunderground v.1.15,2013-08-14 03:06:00,
2013-08-13 23:09:00,71.9,70.4,29.87,WSW,257,0.0,1.0,95,0.00,,,0.14,Wunderground v.1.15,2013-08-14 03:09:00,
2013-08-13 23:10:00,71.9,70.7,29.87,WSW,257,0.0,0.0,96,0.00,,,0.14,Wunderground v.1.15,2013-08-14 03:10:00,
2013-08-13 23:11:00,71.8,70.3,29.87,WSW,256,0.0,0.0,95,0.00,,,0.14,Wunderground v.1.15,2013-08-14 03:11:00,
2013-08-13 23:12:00,71.8,70.3,29.87,WSW,257,0.0,0.0,95,0.00,,,0.14,Wunderground v.1.15,2013-08-14 03:12:00,
2013-08-13 23:14:00,71.8,70.3,29.86,WSW,257,0.0,0.0,95,0.00,,,0.14,Wunderground v.1.15,2013-08-14 03:14:00,
2013-08-13 23:15:00,71.7,70.5,29.86,WSW,257,0.0,0.0,96,0.00,,,0.14,Wunderground v.1.15,2013-08-14 03:15:00,
2013-08-13 23:16:00,71.7,70.5,29.87,WSW,256,0.0,1.0,96,0.00,,,0.14,Wunderground v.1.15,2013-08-14 03:16:00,
2013-08-13 23:17:00,71.7,70.5,29.86,WSW,257,0.0,1.0,96,0.00,,,0.14,Wunderground v.1.15,2013-08-14 03:17:00,
2013-08-13 23:19:00,71.7,70.5,29.87,WSW,257,0.0,1.0,96,0.00,,,0.14,Wunderground v.1.15,2013-08-14 03:19:00,
2013-08-13 23:21:00,71.7,70.5,29.86,WSW,257,0.0,1.0,96,0.00,,,0.14,Wunderground v.1.15,2013-08-14 03:21:00,
2013-08-13 23:22:00,71.7,70.5,29.86,WSW,257,1.0,2.0,96,0.00,,,0.14,Wunderground v.1.15,2013-08-14 03:22:00,
2013-08-13 23:24:00,71.7,70.5,29.86,WSW,256,1.0,2.0,96,0.00,,,0.14,Wunderground v.1.15,2013-08-14 03:24:00,
2013-08-13 23:26:00,71.6,70.4,29.86,WSW,257,0.0,2.0,96,0.00,,,0.14,Wunderground v.1.15,2013-08-14 03:26:00,
2013-08-13 23:27:00,71.6,70.4,29.86,WSW,256,0.0,2.0,96,0.00,,,0.14,Wunderground v.1.15,2013-08-14 03:27:00,
2013-08-13 23:29:00,71.5,70.3,29.86,WSW,256,0.0,2.0,96,0.00,,,0.14,Wunderground v.1.15,2013-08-14 03:29:00,
2013-08-13 23:31:00,71.5,70.3,29.86,WSW,257,0.0,0.0,96,0.00,,,0.14,Wunderground v.1.15,2013-08-14 03:31:00,
2013-08-13 23:32:00,71.5,70.3,29.86,WSW,257,0.0,0.0,96,0.00,,,0.14,Wunderground v.1.15,2013-08-14 03:32:00,
2013-08-13 23:33:00,71.5,70.3,29.86,WSW,257,0.0,0.0,96,0.00,,,0.14,Wunderground v.1.15,2013-08-14 03:33:00,
2013-08-13 23:34:00,71.5,70.3,29.86,WSW,256,0.0,0.0,96,0.00,,,0.14,Wunderground v.1.15,2013-08-14 03:34:00,
2013-08-13 23:36:00,71.4,70.2,29.86,WSW,257,0.0,1.0,96,0.00,,,0.14,Wunderground v.1.15,2013-08-14 03:36:00,
2013-08-13 23:37:00,71.4,70.2,29.86,WSW,256,0.0,1.0,96,0.00,,,0.14,Wunderground v.1.15,2013-08-14 03:37:00,
2013-08-13 23:38:00,71.4,70.2,29.86,WSW,256,0.0,1.0,96,0.00,,,0.14,Wunderground v.1.15,2013-08-14 03:38:00,
2013-08-13 23:39:00,71.3,70.1,29.86,WSW,257,0.0,0.0,96,0.00,,,0.14,Wunderground v.1.15,2013-08-14 03:39:00,
2013-08-13 23:41:00,71.3,70.1,29.86,WSW,257,0.0,0.0,96,0.00,,,0.14,Wunderground v.1.15,2013-08-14 03:41:00,
2013-08-13 23:43:00,71.3,70.1,29.86,WSW,257,0.0,0.0,96,0.00,,,0.14,Wunderground v.1.15,2013-08-14 03:43:00,
2013-08-13 23:45:00,71.3,70.1,29.86,WSW,257,0.0,0.0,96,0.00,,,0.14,Wunderground v.1.15,2013-08-14 03:45:00,
2013-08-13 23:47:00,71.3,70.1,29.86,WSW,256,0.0,0.0,96,0.00,,,0.14,Wunderground v.1.15,2013-08-14 03:47:00,
2013-08-13 23:48:00,71.3,70.1,29.86,WSW,256,0.0,0.0,96,0.00,,,0.14,Wunderground v.1.15,2013-08-14 03:48:00,
2013-08-13 23:50:00,71.3,70.1,29.86,WSW,257,0.0,0.0,96,0.00,,,0.14,Wunderground v.1.15,2013-08-14 03:50:00,
2013-08-13 23:52:00,71.3,70.1,29.86,WSW,257,0.0,0.0,96,0.00,,,0.14,Wunderground v.1.15,2013-08-14 03:52:00,
2013-08-13 23:53:00,71.3,70.1,29.86,WSW,256,0.0,0.0,96,0.00,,,0.14,Wunderground v.1.15,2013-08-14 03:53:00,
2013-08-13 23:55:00,71.2,70.0,29.86,WSW,256,0.0,1.0,96,0.00,,,0.14,Wunderground v.1.15,2013-08-14 03:55:00,
2013-08-13 23:57:00,71.1,69.9,29.86,WSW,257,0.0,1.0,96,0.00,,,0.14,Wunderground v.1.15,2013-08-14 03:57:00,
2013-08-13 23:58:00,71.1,69.9,29.86,WSW,256,0.0,1.0,96,0.00,,,0.14,Wunderground v.1.15,2013-08-14 03:58:00,